GFSFLT1_850_rhum_000.txt.gz
RH
94 91 99 90 72 30 18 19 20 22 28 28 30 30 30 36 78 87 75 90 49 26 35 32 32 38 78 79 75 90 89 52 42
91 77 87 70 45 30 19 17 19 23 27 27 28 28 27 74 78 83 90 82 27 44 28 24 30 28 23 32 20 46 31 17 27
88 87 95 86 65 34 25 22 19 24 27 30 29 25 25 54 52 44 78 23 29 28 23 24 24 25 20 16 13 18 15 10 6
77 90 90 88 75 34 24 25 24 27 27 30 26 21 25 29 40 34 59 25 26 24 25 26 26 26 25 24 21 20 20 19 16
67 89 92 92 70 35 18 19 23 28 24 27 24 20 25 39 26 27 42 25 26 27 27 27 27 28 29 29 29 28 28 28 27
77 91 74 69 53 28 17 20 27 28 28 26 22 19 25 36 40 44 25 26 27 28 29 29 29 30 31 32 33 34 34 34 35
90 66 52 49 38 25 19 24 30 31 31 35 22 20 20 26 28 43 25 26 28 28 29 30 30 30 32 33 34 36 36 37 38
56 90 47 56 32 30 24 29 30 31 30 27 31 22 21 22 25 27 25 26 27 27 28 29 31 32 32 34 35 36 37 38 39
83 86 74 51 60 50 22 56 36 30 29 26 26 22 26 20 21 25 24 26 26 26 27 28 29 31 33 33 34 36 37 38 39
73 78 73 60 63 65 67 63 72 45 33 28 26 23 22 22 23 23 24 25 25 26 26 27 27 28 29 31 33 34 36 38 39
48 61 62 69 60 64 68 72 76 72 38 37 30 25 24 24 25 25 25 26 26 26 27 27 28 28 28 28 30 32 34 35 36
60 54 65 56 71 57 74 75 61 69 64 36 44 32 28 27 26 26 27 27 27 27 27 27 28 28 29 29 30 35 41 34 35
67 64 61 63 77 83 88 87 84 78 76 72 64 50 38 32 30 29 27 26 27 28 28 29 30 30 30 30 30 34 35 38 42
72 70 67 72 90 88 86 91 90 86 80 79 75 72 66 42 33 33 30 28 30 32 34 32 36 36 37 36 35 36 40 42 43
78 77 74 75 83 95 96 90 93 89 86 82 80 72 75 74 57 46 34 29 29 28 33 34 35 34 36 38 38 40 42 61 66
70 78 80 79 84 83 92 95 91 92 93 99 93 87 86 83 65 40 37 35 30 36 38 38 35 34 35 39 55 68 65 66 63
64 70 79 84 90 94 99 100 99 98 94 98 97 92 73 77 75 53 47 42 41 45 56 54 60 75 73 67 66 65 65 66 71
51 61 72 83 89 88 94 99 99 99 99 99 96 86 77 77 69 61 60 58 65 65 73 76 80 72 69 68 69 69 75 72 74
38 49 62 73 84 86 90 96 98 97 96 99 96 93 84 84 76 76 83 79 72 67 68 66 66 66 65 69 72 70 70 71 71
38 47 54 57 68 78 87 99 99 94 94 88 99 90 88 90 96 92 86 84 83 71 67 67 65 63 63 69 68 71 71 72 75

GFSFLT1_850_rhum_003.txt.gz
RH
78 95 93 96 69 29 20 22 35 44 34 36 33 29 30 62 82 85 92 82 26 27 27 26 28 22 18 15 16 13 9 11 14
78 76 89 72 56 40 19 17 20 21 28 28 32 27 35 74 78 83 86 43 32 30 26 28 32 24 19 16 16 15 11 8 7
86 88 96 85 73 47 32 18 17 23 29 28 27 23 30 72 72 79 87 25 31 28 25 25 28 28 24 21 20 20 19 17 15
82 92 91 89 76 53 32 25 20 25 28 27 24 22 28 61 66 65 68 25 26 25 26 26 27 28 28 28 26 27 27 27 27
77 79 88 91 77 53 27 21 22 25 25 25 22 21 24 51 41 66 66 25 26 26 27 27 28 29 30 31 32 32 32 33 33
92 93 86 69 58 44 22 18 20 26 25 24 22 20 26 60 69 72 30 26 27 28 28 28 29 30 31 32 33 34 35 36 36
89 89 44 44 41 30 18 18 24 27 37 36 23 19 43 46 58 70 30 26 27 28 29 30 30 30 31 32 34 34 36 37 38
75 84 57 36 36 28 19 20 26 34 55 50 58 40 49 40 41 60 30 26 26 27 28 29 30 31 32 32 33 35 36 37 38
80 83 85 76 80 51 69 63 60 34 30 41 42 43 41 36 27 43 26 24 26 26 26 27 27 28 29 31 33 33 35 37 38
74 75 78 76 74 74 72 57 68 70 54 45 38 32 29 33 28 21 22 23 24 25 26 26 26 27 27 28 29 31 33 34 36
60 68 69 75 73 71 73 73 71 73 73 56 50 35 25 23 25 26 27 24 24 25 25 26 26 26 28 30 37 38 48 50 39
56 55 64 68 77 82 82 81 76 72 75 68 53 48 44 40 30 24 24 26 24 25 26 26 26 27 27 28 31 49 83 73 56
64 64 58 63 82 86 85 84 84 80 76 72 70 60 52 48 45 41 33 28 26 25 25 26 26 28 29 31 35 55 74 48 35
67 68 67 70 77 85 86 85 84 83 82 77 72 71 69 66 60 51 44 42 31 27 27 28 28 30 31 34 37 42 45 35 37
68 69 74 80 78 80 88 87 84 86 86 81 73 72 72 69 70 67 66 56 35 34 30 29 28 27 28 32 36 37 36 36 38
58 59 69 80 82 79 86 92 93 93 92 89 85 84 81 79 73 70 66 53 43 43 41 33 33 34 35 32 31 33 40 62 64
60 59 61 74 88 92 90 93 95 94 93 89 90 90 82 81 79 78 79 75 76 63 56 41 43 48 49 56 65 66 66 65 65
52 55 67 75 92 92 93 96 97 96 96 93 91 86 82 64 67 70 70 54 52 48 47 56 74 74 77 74 69 67 67 69 71
39 46 55 64 79 84 96 100 98 100 99 99 98 92 81 79 73 72 75 73 71 72 75 70 74 69 72 69 67 65 66 67 68
45 48 54 55 63 69 75 95 100 100 100 98 100 99 91 87 95 91 83 83 83 78 74 66 74 78 75 64 62 62 67 70 70

GFSFLT1_850_rhum_006.txt.gz
RH
83 74 69 48 43 35 24 36 37 91 51 55 29 30 55 79 84 88 89 68 26 24 22 22 22 20 17 16 18 12 10 9 10
90 71 75 62 54 44 23 20 23 28 31 36 31 30 64 78 84 88 84 27 26 23 24 24 24 23 21 20 22 20 16 13 10
84 90 97 89 68 54 32 18 19 22 28 27 28 27 62 74 80 83 76 25 24 24 25 25 26 26 26 25 25 25 25 24 23
89 89 92 90 83 55 33 24 18 20 25 26 24 24 46 60 67 59 44 24 24 25 26 26 26 27 28 28 29 29 30 30 31
80 75 84 85 82 58 39 23 22 20 22 23 21 22 28 40 37 62 55 39 25 26 26 26 27 28 30 30 31 32 32 33 34
85 60 50 57 59 46 35 19 19 21 24 23 21 20 25 38 41 58 42 29 26 27 27 27 27 28 30 31 32 33 34 36 37
92 79 61 49 37 30 25 17 17 22 27 25 23 20 23 29 54 54 44 30 27 27 28 28 28 29 29 30 32 34 34 36 37
78 63 46 49 28 27 24 17 17 24 30 33 37 24 22 35 35 45 38 34 26 27 28 28 28 29 29 30 31 32 34 35 37
56 44 45 48 35 45 31 34 21 24 26 32 37 40 35 40 36 30 28 29 26 26 26 27 27 27 27 28 28 30 31 33 34
56 56 67 62 48 48 63 55 46 55 32 28 28 28 33 32 31 27 23 22 24 24 25 25 26 26 26 26 27 27 28 29 30
53 55 50 52 53 48 51 51 42 37 46 42 37 31 27 25 24 24 23 22 22 23 23 24 25 25 26 26 26 28 31 34 34
48 51 51 49 47 44 45 46 60 63 57 54 57 51 42 32 26 23 22 22 22 23 24 24 25 25 26 26 26 27 30 34 39
52 52 50 52 51 52 52 49 52 53 54 59 65 67 54 45 40 36 28 26 25 23 23 23 25 25 26 26 27 29 31 35 39
39 43 46 54 61 61 57 59 61 62 67 71 69 61 62 63 60 52 46 40 34 30 25 25 26 26 27 29 30 31 33 36 39
39 40 46 59 64 68 67 67 70 70 71 78 80 76 71 66 65 65 68 67 61 54 46 35 29 30 32 32 30 27 31 35 40
39 45 52 65 71 71 74 76 76 78 82 86 88 84 78 77 77 75 73 65 65 61 58 48 44 40 37 36 32 32 32 31 34
58 55 55 66 75 78 82 89 87 86 90 94 95 95 88 83 75 70 63 56 64 71 76 74 67 58 46 42 40 47 55 57 61
80 80 84 84 88 83 86 93 96 92 92 95 93 86 82 74 68 64 60 62 73 77 70 69 66 56 47 64 67 67 70 68 67
60 66 76 87 94 94 94 98 99 100 93 90 91 91 90 83 79 74 73 68 70 67 58 54 54 59 62 70 68 72 71 69 68
68 67 74 78 89 98 100 100 100 100 98 92 93 95 94 95 99 94 86 83 79 79 78 75 72 71 65 73 71 68 66 65 66

GFSFLT1_850_rhum_009.txt.gz
RH
82 55 50 43 32 21 23 33 23 53 86 64 25 29 52 65 83 98 84 49 23 22 23 23 22 20 18 17 16 14 11 9 8
77 65 51 46 31 19 16 18 21 22 34 38 26 35 55 68 84 85 80 36 23 23 23 24 24 23 22 22 22 21 20 18 17
69 62 55 56 48 35 27 17 19 22 25 24 26 37 57 71 83 84 73 41 23 23 24 25 27 26 26 26 26 26 26 26 26
45 58 62 80 74 60 37 26 17 18 22 23 25 29 59 64 80 80 59 30 24 23 24 26 27 28 29 29 29 30 30 30 31
47 48 64 74 78 72 48 30 22 17 21 23 24 24 46 49 55 51 51 46 25 24 24 25 27 28 29 30 31 32 33 33 35
38 60 49 46 54 52 39 30 19 20 20 22 22 21 24 37 42 46 48 44 31 25 25 26 27 28 29 30 31 32 33 35 36
58 60 55 46 44 38 36 26 17 17 20 22 22 21 22 27 32 32 43 43 31 26 26 26 27 28 29 29 30 30 31 32 33
46 51 48 49 52 33 28 22 16 15 20 24 23 22 22 23 29 30 36 37 34 26 26 26 27 27 28 29 30 30 30 30 31
34 39 39 42 46 34 29 24 18 14 19 24 25 24 24 21 25 28 29 28 29 29 25 25 26 26 26 26 26 27 29 29 29
45 44 42 34 29 31 28 25 24 22 21 29 30 28 27 27 24 27 29 25 24 25 25 24 25 25 25 25 25 26 26 28 29
42 42 40 38 36 35 35 30 29 31 30 26 40 37 31 30 26 26 26 25 24 23 23 23 23 24 24 25 25 26 27 27 28
43 44 43 41 45 45 45 42 40 43 43 37 35 37 42 43 36 33 28 25 23 23 23 23 23 24 24 25 26 28 28 29 30
45 43 38 42 51 52 51 50 50 49 49 44 45 50 51 52 54 45 37 34 29 25 23 23 23 24 25 26 29 34 32 34 35
41 42 41 51 58 60 59 58 58 57 60 59 56 53 53 52 53 49 47 44 40 34 30 30 29 29 30 31 32 40 40 36 36
50 51 50 61 69 67 72 72 69 70 69 71 70 66 64 64 65 63 60 56 57 55 54 51 46 41 41 41 40 38 38 37 36
71 72 67 63 70 66 68 74 80 79 80 86 84 82 77 77 77 76 72 70 68 68 68 65 60 57 53 54 54 52 45 38 33
78 78 73 69 76 79 77 80 82 85 90 89 92 96 90 82 75 72 70 72 72 73 70 69 67 64 72 73 70 58 49 45 39
81 80 78 81 86 87 88 92 94 95 94 96 97 98 83 74 65 63 65 64 60 57 56 55 58 68 72 57 56 56 46 48 54
78 75 74 77 82 87 89 97 100 100 98 99 99 98 96 88 83 75 77 77 74 73 68 64 65 66 57 50 47 48 58 69 71
72 71 73 76 79 81 86 92 95 95 100 96 97 100 100 99 96 94 86 90 90 86 79 74 74 72 72 72 75 66 58 61 71

GFSFLT1_850_rhum_012.txt.gz
RH
74 53 42 35 27 25 27 39 26 34 48 92 36 34 52 68 84 77 80 72 26 23 23 22 21 20 18 18 17 14 13 10 9
54 52 48 38 40 25 18 18 20 18 19 22 26 33 51 52 67 67 78 60 29 24 25 24 24 23 22 23 22 21 20 18 17
40 43 45 54 59 39 25 19 17 18 19 20 24 33 50 54 60 65 64 58 32 25 25 25 26 26 26 25 26 26 26 26 26
31 47 70 79 69 57 42 31 20 16 19 20 24 28 46 53 52 49 53 57 34 25 24 24 26 26 28 28 29 29 29 29 30
34 57 58 50 65 66 61 41 29 20 17 20 23 26 39 48 52 48 46 40 29 26 25 24 25 26 28 29 30 31 31 31 32
29 42 56 47 40 43 44 40 29 20 18 18 22 24 25 41 46 40 37 43 47 38 25 25 25 25 26 27 29 31 32 33 34
31 45 47 38 32 31 35 27 22 19 16 18 21 23 24 27 34 38 34 37 42 42 27 26 26 25 25 26 27 28 29 31 32
30 34 32 30 30 31 30 23 22 18 15 16 21 23 23 23 25 33 34 34 40 46 37 26 26 26 25 26 26 26 27 28 29
31 31 32 31 33 34 34 26 28 22 16 16 21 24 24 23 22 25 34 34 34 41 38 31 25 25 25 25 25 25 26 26 27
35 34 36 36 38 37 38 36 32 29 26 19 18 23 26 28 28 23 25 33 33 34 38 43 36 28 25 25 25 25 25 25 26
37 37 37 38 42 43 42 42 43 40 37 35 31 30 33 32 30 32 32 31 33 36 33 34 45 51 48 45 32 27 26 26 27
45 45 43 47 54 55 55 54 57 55 51 45 41 35 30 33 41 40 33 31 32 32 31 31 33 36 47 69 71 69 59 37 34
58 59 59 60 62 64 65 63 61 61 61 58 55 53 50 48 45 44 46 47 46 41 38 33 30 29 30 47 70 79 82 81 70
64 62 59 59 62 67 70 70 73 69 67 67 67 66 64 60 59 56 55 54 53 49 44 44 41 37 35 36 58 71 76 77 73
73 76 75 75 75 74 75 77 77 78 80 80 78 77 76 73 72 69 68 66 64 63 62 56 51 49 51 53 50 47 48 54 58
81 82 81 82 86 84 85 86 87 86 87 91 89 87 83 81 80 80 79 77 76 75 73 70 67 64 65 64 64 62 63 64 64
79 82 83 84 86 85 86 89 91 93 93 96 100 98 90 88 86 79 70 53 58 60 63 66 67 70 71 68 68 69 67 74 81
85 87 87 87 85 84 82 84 86 92 92 94 99 98 90 80 78 77 72 72 66 63 63 65 60 60 60 57 55 57 64 65 71
75 76 77 76 79 81 82 86 87 87 88 84 94 96 99 98 92 84 86 84 82 80 77 76 78 78 75 66 64 63 60 55 49
80 81 82 84 83 82 83 81 95 94 91 86 93 99 96 100 100 98 87 84 86 88 89 85 81 82 83 84 78 77 74 71 73

GFSFLT1_850_rhum_015.txt.gz
RH
91 69 56 48 37 26 32 44 36 41 74 72 46 40 65 67 64 62 61 57 36 22 21 20 21 21 20 19 18 16 14 12 11
72 66 61 52 45 36 21 20 32 27 26 27 36 35 47 53 58 61 53 49 40 23 22 23 24 23 22 22 22 21 20 19 17
92 66 66 64 56 48 34 26 19 19 19 19 22 27 38 52 54 65 63 56 46 26 22 23 25 25 24 24 25 24 24 24 24
63 55 63 71 55 45 38 35 27 20 16 18 21 24 37 50 57 66 62 54 52 33 24 24 25 26 26 26 26 27 26 27 27
33 37 42 37 31 40 48 43 34 30 23 17 21 26 28 39 51 54 54 53 47 51 29 25 25 25 26 27 27 28 28 29 30
23 25 37 38 30 33 44 45 39 36 31 22 19 24 27 31 42 49 49 48 41 39 52 30 26 26 26 26 26 27 28 29 30
26 26 32 32 32 37 41 46 45 36 27 19 19 20 25 26 28 42 45 42 38 42 66 49 29 26 26 26 26 26 27 28 28
27 28 33 33 36 35 38 37 35 27 26 21 16 20 23 26 25 25 30 35 36 37 60 91 49 28 27 27 26 26 26 26 27
32 32 34 38 42 43 44 45 48 41 37 26 18 16 20 23 23 23 24 30 36 37 41 90 92 57 31 28 27 27 26 26 27
44 44 46 49 52 54 55 55 54 53 48 40 34 25 18 20 24 25 26 25 29 35 39 84 91 93 93 77 44 29 28 27 27
48 50 52 52 55 58 60 62 62 60 61 55 52 46 41 33 29 28 30 32 35 29 34 41 83 88 91 93 91 86 69 42 31
43 46 50 52 57 62 64 66 68 67 66 63 63 64 60 56 49 43 38 36 39 39 40 43 43 46 66 83 89 91 89 87 84
49 53 54 59 63 66 67 68 71 73 72 70 70 70 70 68 66 64 60 56 51 48 48 50 46 42 42 66 71 78 84 86 85
64 68 71 76 81 84 84 84 82 81 80 79 79 79 79 78 77 74 72 70 69 67 61 58 57 60 58 53 62 63 65 69 78
72 79 83 86 88 89 90 92 93 93 92 91 90 89 89 86 84 83 82 79 77 76 75 73 70 68 68 68 65 61 54 54 58
83 88 91 91 92 91 94 94 94 94 94 94 87 85 84 79 78 80 78 76 70 73 70 73 79 80 79 76 74 70 68 66 66
90 90 90 90 90 89 90 94 96 97 95 98 100 99 89 82 74 75 78 77 77 74 64 65 58 57 56 55 59 64 70 74 76
78 79 79 80 82 81 81 82 90 96 87 89 100 99 92 86 80 76 73 75 78 79 81 79 72 75 71 68 64 61 63 63 64
71 73 74 75 76 78 80 83 90 97 94 90 100 100 99 99 94 86 81 73 76 72 71 69 69 69 72 77 83 78 62 63 67
48 48 49 50 52 56 60 66 68 94 99 99 99 100 99 100 100 98 96 98 82 76 81 78 79 78 72 66 66 66 72 65 58

GFSFLT1_850_rhum_018.txt.gz
RH
100 83 66 64 55 42 39 68 39 56 66 76 100 69 42 48 54 62 69 69 63 35 24 21 20 20 19 18 18 18 16 14 12
98 70 62 53 44 41 35 34 41 40 47 54 67 70 44 47 53 54 64 70 61 67 26 22 22 21 21 21 22 21 20 19 17
100 53 46 46 52 54 55 46 36 27 24 22 23 40 42 37 46 52 53 62 64 91 38 24 23 23 24 23 24 24 24 24 23
55 50 45 50 71 98 96 85 64 46 34 21 19 25 30 31 40 49 48 59 66 78 93 30 23 23 24 25 25 25 26 26 26
27 35 34 46 60 94 96 89 64 55 47 34 23 20 28 28 33 42 48 52 62 62 92 72 28 25 25 26 27 27 27 28 28
27 28 30 38 54 53 54 58 57 56 43 36 29 22 20 26 27 34 42 50 53 57 73 92 77 30 28 27 27 27 28 29 29
30 30 35 41 51 50 53 57 58 54 42 33 28 22 20 22 25 26 34 46 54 54 50 69 93 75 37 30 30 29 28 28 29
31 36 40 44 49 51 56 55 52 50 47 37 32 27 19 18 21 25 27 30 43 43 43 50 92 97 91 50 41 39 32 30 29
35 37 40 42 46 49 53 55 56 55 55 55 51 44 34 23 18 20 26 29 28 29 33 40 68 94 98 97 85 55 38 37 34
41 43 46 50 54 56 59 60 61 61 61 60 59 57 55 48 41 29 22 27 31 32 28 30 42 81 87 94 89 84 65 50 51
37 42 48 52 55 58 61 62 63 63 65 64 65 63 63 61 59 56 52 42 31 32 35 37 35 46 83 88 90 88 82 76 77
49 52 55 60 68 73 74 74 76 76 77 76 76 75 72 70 69 68 66 63 60 52 42 41 43 42 58 78 83 84 85 87 84
65 69 69 74 81 86 88 88 89 90 90 91 92 92 90 87 85 84 82 79 75 71 68 64 59 54 52 64 77 77 77 80 81
73 76 78 83 87 91 93 92 92 88 88 90 92 92 92 89 90 88 85 82 82 80 76 74 74 72 70 67 68 72 73 70 70
81 84 85 90 89 91 92 87 87 89 88 90 90 84 82 82 81 77 71 68 69 69 71 71 71 70 75 80 80 76 71 70 68
81 84 88 91 89 88 86 88 85 79 80 96 85 87 80 74 72 69 68 65 62 68 71 70 71 69 61 57 57 70 78 79 80
80 78 77 78 77 78 79 81 84 90 94 100 100 99 94 90 86 85 82 78 72 72 69 69 69 72 73 70 61 58 56 59 65
63 64 65 64 63 63 63 66 70 86 85 92 100 98 94 97 98 95 90 94 89 82 78 74 74 75 77 74 71 69 70 68 61
46 46 43 42 40 39 39 41 46 56 66 75 87 98 99 100 96 97 97 98 89 78 84 78 83 85 80 81 79 75 74 76 78
31 30 30 31 31 32 32 31 31 33 36 43 59 68 74 83 99 98 92 90 90 90 93 93 85 94 90 82 74 85 77 81 81

GFSFLT1_850_rhum_021.txt.gz
RH
53 42 46 39 44 40 42 88 60 66 84 100 97 99 92 48 53 52 64 61 62 62 94 35 30 25 22 20 19 18 17 15 13
82 37 41 43 47 49 46 43 57 71 60 88 93 99 98 72 48 53 56 61 69 57 95 34 26 26 24 23 22 20 20 19 17
100 68 40 48 55 73 79 72 51 43 38 50 69 75 98 80 39 49 49 53 66 68 97 82 32 28 27 26 24 23 23 23 22
55 69 51 55 71 97 98 99 97 89 59 46 37 47 40 65 44 36 46 49 59 68 68 94 92 53 28 27 26 25 25 25 25
48 49 54 53 56 66 89 96 96 85 93 53 47 41 30 32 28 29 35 47 56 63 66 81 96 92 54 31 27 27 27 27 28
42 40 42 42 44 58 63 77 94 96 94 56 49 40 34 29 24 26 27 36 47 51 54 61 86 96 93 51 38 30 28 28 29
32 31 35 36 41 46 50 53 56 58 55 52 48 39 32 26 20 20 22 26 30 39 47 53 87 96 92 93 54 43 39 31 30
33 34 37 42 44 47 52 55 56 57 56 54 53 52 47 39 29 18 16 21 26 27 30 44 48 70 90 94 93 82 69 59 44
42 44 47 49 52 54 57 58 58 58 59 60 59 59 58 55 53 48 40 25 18 22 26 26 28 33 68 92 87 82 80 54 54
43 46 49 51 54 58 61 64 66 66 67 68 68 68 68 68 66 63 60 59 52 39 25 25 26 27 47 75 77 76 81 82 73
49 52 56 61 68 74 79 82 83 85 86 86 87 87 88 86 84 79 73 70 70 68 64 54 38 33 45 69 80 77 66 79 83
65 66 69 74 78 81 84 87 89 89 90 90 89 89 90 91 93 92 88 82 77 76 76 74 71 65 53 55 66 60 54 61 72
72 73 72 76 80 83 88 89 90 87 84 81 81 81 82 87 89 87 85 82 76 70 68 71 74 78 76 73 71 66 59 58 57
72 73 73 77 79 85 89 83 87 87 83 83 78 74 72 74 74 73 73 75 72 69 65 63 65 70 76 81 82 81 75 70 66
71 75 80 87 89 87 84 81 80 80 82 84 82 79 79 77 74 72 72 67 67 69 68 68 69 66 68 70 72 76 82 86 84
82 80 76 73 73 72 72 72 70 67 72 97 92 100 88 78 80 82 81 81 76 76 84 78 79 77 72 71 73 77 70 66 70
58 55 52 50 47 44 43 42 42 42 45 93 89 94 84 83 88 80 85 85 90 92 90 87 87 87 83 85 81 79 79 79 77
40 37 34 32 31 32 32 33 34 36 34 36 76 93 82 98 89 90 90 91 92 86 93 90 97 94 96 93 90 87 84 84 84
31 32 34 35 35 36 35 35 34 35 37 35 37 41 50 85 81 65 81 79 90 89 85 92 94 84 73 73 81 80 85 88 88
40 40 40 38 36 33 30 27 26 27 34 42 55 61 79 86 98 95 82 84 81 84 87 82 92 98 97 78 74 82 91 94 99

GFSFLT1_850_rhum_024.txt.gz
RH
82 75 62 51 50 47 43 48 98 83 83 78 96 91 92 96 87 84 85 69 81 50 69 62 39 35 30 26 22 20 18 17 15
98 94 66 59 59 56 46 44 42 56 54 51 92 96 96 98 89 81 82 89 81 67 54 88 36 26 25 24 23 22 21 20 18
98 99 80 80 59 72 82 88 72 64 56 45 86 99 90 93 93 90 80 58 55 66 69 94 92 42 30 27 26 24 23 23 22
82 85 72 62 53 68 96 96 96 97 92 88 63 53 75 95 91 89 90 61 45 51 66 73 91 94 89 59 44 34 28 26 24
38 44 45 42 41 43 54 70 91 95 98 95 72 48 39 50 86 85 84 30 35 44 50 60 73 95 95 86 69 40 32 30 27
53 47 42 38 36 37 42 48 54 60 66 59 50 45 44 71 68 67 57 19 25 31 40 45 82 88 87 98 85 73 54 32 30
45 40 40 42 42 43 46 49 52 55 83 90 72 64 84 77 65 49 25 16 17 20 23 28 36 61 87 80 89 93 83 86 46
49 46 46 47 49 52 57 58 64 75 80 87 89 90 89 85 78 64 54 47 30 17 18 22 24 26 36 64 85 85 87 91 90
49 50 53 54 57 61 63 69 81 82 83 89 88 89 89 87 85 78 63 62 62 56 43 23 22 26 28 43 70 84 83 88 84
55 54 56 59 65 72 79 83 91 92 94 94 94 93 91 90 91 88 76 66 67 67 64 62 55 41 27 28 30 40 64 77 80
66 66 67 70 74 77 79 81 83 86 89 92 93 91 93 89 86 86 86 80 72 75 75 71 68 65 63 56 41 31 35 42 53
69 69 70 73 76 74 78 84 91 84 79 81 84 91 90 90 87 88 87 91 83 73 74 76 77 78 77 75 70 66 58 45 38
68 69 73 78 76 80 87 97 97 96 100 99 98 98 96 90 84 85 89 90 90 82 73 71 71 72 74 78 88 96 92 79 71
72 75 77 81 87 92 92 85 92 94 92 92 91 91 91 91 91 92 92 93 92 90 80 73 74 72 71 72 75 85 89 93 94
82 82 79 72 67 66 59 62 74 80 80 79 77 79 80 78 83 85 85 85 93 96 99 96 89 77 77 77 82 80 78 79 84
57 49 44 40 38 36 33 35 35 51 59 56 58 58 64 77 62 72 87 74 75 80 83 87 93 96 98 92 85 82 86 87 85
33 29 28 29 31 33 34 35 35 41 55 61 62 49 53 47 63 51 51 63 59 69 78 86 89 93 94 97 99 94 88 87 87
34 37 38 38 37 35 32 34 48 64 60 61 63 63 56 66 56 55 54 55 65 62 64 72 72 73 78 93 92 93 86 72 71
43 42 40 35 29 23 16 14 20 47 49 50 51 63 66 67 65 50 58 55 65 61 62 62 68 70 70 78 91 90 84 76 76
46 40 33 24 15 8 4 5 11 25 38 49 56 62 65 63 59 66 47 48 49 52 54 60 68 67 69 76 82 90 94 93 98

GFSFLT1_850_rhum_027.txt.gz
RH
82 83 80 65 63 57 45 36 55 86 63 74 72 84 93 91 96 84 79 74 64 91 51 84 63 60 42 29 26 22 20 19 16
95 99 63 64 56 58 55 55 52 44 41 47 50 87 94 83 89 88 80 79 89 92 56 58 77 44 25 23 24 25 23 21 19
87 98 65 58 50 48 86 93 95 82 73 64 47 42 43 50 78 90 87 82 64 47 52 90 84 95 61 28 25 24 23 22 21
60 68 60 47 37 40 43 60 82 82 77 54 36 35 36 36 32 72 83 83 65 33 37 48 84 83 93 78 47 30 25 24 24
44 44 47 40 35 34 37 43 46 53 53 48 40 41 37 32 49 68 74 74 41 22 28 34 44 96 80 93 87 52 29 26 28
88 85 41 37 38 40 44 46 49 50 50 58 73 67 53 77 76 66 65 61 34 19 20 24 29 34 68 68 83 88 81 55 42
69 43 39 40 43 46 49 52 54 56 62 87 82 83 85 83 78 75 66 52 44 32 17 16 21 25 31 50 71 72 84 91 90
78 79 71 52 59 51 59 68 78 86 88 85 83 81 81 81 82 79 74 54 55 56 52 43 24 16 19 23 29 50 74 87 88
79 79 82 74 78 85 82 89 88 89 88 88 85 83 83 84 83 84 83 79 68 70 69 64 60 54 40 22 20 22 25 39 65
77 80 82 85 84 84 89 90 90 89 87 86 86 86 87 88 89 91 89 89 86 77 75 81 81 72 66 61 54 38 26 25 29
86 82 88 91 91 91 91 91 92 93 91 90 88 85 84 84 83 84 85 86 87 87 83 79 80 83 84 82 76 70 65 56 39
78 83 90 94 91 92 93 95 95 96 97 97 93 87 84 85 87 88 89 90 90 90 90 90 84 80 82 94 100 97 95 90 80
93 95 93 96 99 98 99 97 94 88 85 81 78 79 79 80 80 80 81 83 86 88 90 92 94 94 88 84 89 93 99 99 98
91 100 96 88 89 83 77 66 68 65 56 62 60 62 64 68 65 70 72 77 79 81 85 83 85 90 86 83 84 79 79 85 92
76 65 47 38 44 44 36 40 38 40 50 50 51 48 49 43 57 67 69 72 79 77 69 70 75 80 87 88 90 90 90 82 82
32 29 31 35 39 46 42 44 39 36 51 52 57 45 46 47 50 55 69 72 63 48 59 57 68 71 72 67 81 90 92 91 88
36 39 40 40 39 38 34 31 33 42 42 52 48 48 47 45 38 28 39 44 49 57 62 63 62 57 61 71 71 72 80 73 90
45 45 40 35 32 29 22 20 23 40 26 40 47 46 44 55 48 47 45 46 42 43 58 61 42 48 59 63 69 70 79 90 96
40 38 36 32 26 18 10 13 21 41 35 25 35 39 50 59 58 40 36 39 38 27 41 44 40 46 62 64 63 65 73 76 84
42 38 33 26 18 9 7 8 15 24 23 24 34 44 58 54 46 43 36 43 41 42 54 56 60 57 37 54 65 63 62 69 90

GFSFLT1_850_rhum_030.txt.gz
RH
92 73 62 53 40 38 34 35 49 48 43 54 70 68 63 74 51 66 87 77 58 85 83 60 50 52 46 45 36 28 21 19 18
96 98 55 53 42 35 34 39 41 38 33 33 33 27 20 20 22 28 76 86 71 88 94 49 44 45 36 26 23 22 22 20 19
85 59 44 39 34 33 30 30 40 59 47 34 36 30 24 22 21 19 33 72 83 63 36 34 47 63 86 65 34 22 22 21 21
48 33 29 26 24 27 29 33 36 46 51 41 35 33 35 29 24 20 20 40 82 79 32 25 29 43 65 82 82 56 25 25 24
48 36 34 32 32 34 35 38 40 42 41 42 49 61 56 46 39 35 34 38 44 44 25 18 22 27 36 72 73 84 80 46 26
80 66 39 36 37 38 40 43 45 46 48 56 74 75 67 62 58 57 58 58 56 52 34 19 15 17 22 27 54 67 83 90 76
81 64 46 46 45 47 48 50 52 56 58 57 65 78 75 79 79 79 77 72 66 60 55 54 49 31 18 18 22 33 50 70 83
68 66 55 51 45 47 48 53 59 68 72 75 79 80 81 82 81 81 82 82 81 80 77 73 68 63 58 50 29 20 24 53 52
67 74 78 70 68 64 74 79 85 88 90 90 88 87 87 87 86 87 87 87 86 87 89 87 83 82 84 78 67 61 49 28 34
78 78 78 82 85 86 89 91 92 92 90 87 88 85 83 82 82 85 86 88 87 87 87 88 91 90 90 99 97 88 80 72 64
90 84 92 93 94 92 92 92 92 93 96 91 84 86 82 88 86 79 77 77 81 83 89 90 87 90 94 93 96 98 99 97 94
93 92 94 95 93 92 94 89 89 88 82 85 84 82 81 76 71 73 78 80 83 83 83 82 80 78 80 84 96 98 95 96 100
93 96 96 96 97 93 91 81 71 59 49 41 41 59 59 55 52 61 65 72 70 73 76 79 81 88 86 92 89 88 75 81 89
99 96 85 70 67 56 42 33 36 36 35 36 38 36 34 28 32 44 55 70 76 77 74 76 61 56 64 78 94 97 92 86 79
74 47 32 33 37 39 39 38 34 32 31 29 26 24 22 39 48 54 59 56 56 61 63 64 49 51 62 70 72 89 94 88 82
31 37 39 40 38 35 33 30 27 25 20 18 19 17 24 25 40 50 27 21 16 18 26 46 54 52 63 62 53 54 70 69 86
42 42 38 35 34 32 29 23 17 15 15 23 18 32 31 38 16 20 20 31 38 29 22 26 27 25 26 27 21 31 53 73 86
41 40 40 38 35 31 22 16 11 13 11 10 24 44 44 36 37 38 34 35 17 32 31 26 17 25 40 37 46 56 65 69 81
44 44 43 40 33 24 18 13 9 10 11 9 10 15 28 61 63 47 21 27 24 18 38 37 59 59 51 31 27 38 51 63 68
42 44 44 39 30 20 13 10 9 10 13 15 17 15 18 34 45 49 40 47 45 46 46 65 44 43 42 46 46 33 39 40 62

GFSFLT1_850_rhum_033.txt.gz
RH
68 30 23 22 20 20 21 20 27 32 28 25 24 36 34 23 33 38 45 49 54 52 86 62 56 37 43 45 48 45 34 25 21
52 34 22 21 22 20 21 23 24 27 30 31 31 28 24 23 24 25 31 68 79 86 89 95 60 41 43 34 30 25 22 22 21
67 45 33 26 26 25 25 26 27 34 40 35 30 27 28 28 26 24 21 36 57 89 92 76 55 55 95 96 92 43 32 23 22
33 32 31 32 31 32 33 37 39 39 42 40 40 43 51 52 51 40 29 30 36 45 95 64 30 27 34 94 73 86 83 57 29
50 41 39 39 38 39 40 41 42 44 46 48 52 63 62 61 61 62 59 55 55 54 86 62 34 22 21 29 60 91 88 87 82
60 51 44 42 42 43 46 48 50 52 55 58 62 66 66 68 72 74 75 75 73 70 71 68 64 60 47 26 25 43 84 81 87
71 62 54 53 51 50 52 56 61 65 70 75 80 83 85 83 83 82 82 82 82 84 83 81 81 82 78 71 64 50 39 67 87
70 67 65 62 62 62 66 70 76 78 82 85 88 89 86 87 87 87 88 88 87 87 89 88 87 86 87 87 86 88 81 67 47
73 75 75 72 73 77 81 82 88 89 90 91 90 84 82 86 85 80 78 79 80 87 86 87 90 90 87 88 98 97 97 93 85
76 80 81 83 88 90 90 92 93 91 86 84 90 91 85 70 79 83 87 85 81 78 78 87 86 95 91 84 85 86 86 93 96
85 84 83 94 94 91 90 93 88 88 88 88 82 72 60 75 79 77 74 69 77 78 81 91 94 93 92 86 82 76 75 81 88
90 90 92 94 94 94 94 87 83 79 58 39 34 35 38 43 54 51 50 50 57 66 72 72 78 95 99 93 88 83 82 72 79
97 94 92 90 93 91 90 70 35 34 35 34 32 31 30 29 28 27 31 43 57 71 77 78 70 67 73 64 75 87 76 92 91
90 95 93 80 56 36 35 37 34 30 28 27 25 24 22 23 34 47 46 53 58 58 56 51 47 43 49 54 55 65 76 82 90
85 50 32 37 38 36 33 32 30 26 24 24 23 21 19 20 22 26 39 42 21 16 19 23 21 24 34 49 46 51 44 45 51
37 40 40 37 36 35 34 32 29 26 23 19 20 18 18 19 34 32 18 16 15 20 18 16 14 18 22 24 25 19 14 24 31
42 40 39 40 40 38 33 27 23 19 14 14 14 19 20 27 16 22 14 11 19 14 9 10 6 7 12 16 25 30 23 27 66
40 38 42 44 42 37 29 23 16 14 12 11 19 28 36 20 26 15 22 29 13 12 9 7 8 25 48 54 55 49 18 52 65
43 47 47 45 39 32 24 17 12 11 11 12 15 20 26 41 56 43 15 21 18 15 19 22 23 58 64 37 36 29 56 53 52
49 50 47 40 34 24 15 12 11 13 14 16 16 16 16 22 52 50 45 36 27 24 35 22 53 40 49 42 49 35 42 58 72

GFSFLT1_850_rhum_036.txt.gz
RH
45 27 26 25 28 29 28 31 46 53 43 31 27 30 43 29 25 30 39 49 50 71 90 90 88 69 47 52 53 62 52 44 29
42 25 23 21 22 23 24 28 34 36 39 37 33 33 31 30 30 29 27 30 56 66 95 94 98 97 74 96 84 51 37 32 27
59 33 28 27 26 26 28 30 32 36 50 39 41 46 49 55 59 56 46 32 39 65 84 96 97 94 99 99 96 97 98 66 49
36 33 37 36 34 35 37 38 40 42 45 48 53 56 64 65 67 66 65 60 55 50 51 93 93 92 75 86 87 97 95 91 90
54 49 46 42 40 40 43 45 48 50 55 57 59 65 66 69 70 72 74 76 76 76 74 71 79 77 68 62 42 35 79 78 96
52 49 49 49 50 50 51 52 56 59 65 73 80 83 84 84 83 83 84 84 84 84 84 85 86 85 85 86 84 74 62 50 69
57 55 55 55 54 55 59 64 69 75 78 81 85 88 87 84 82 80 80 81 82 84 86 92 90 90 86 87 86 83 79 78 78
58 58 59 61 68 72 77 80 82 85 87 86 85 84 80 81 81 79 76 77 78 85 92 83 83 87 90 92 90 91 100 99 95
72 74 76 78 82 86 90 90 92 94 91 86 82 79 79 86 83 73 79 82 84 84 78 82 86 88 86 88 93 94 92 92 89
80 80 81 85 90 94 92 91 91 93 86 83 88 89 84 78 72 70 74 78 82 80 80 82 80 85 88 88 88 88 88 87 87
85 89 91 90 96 91 91 88 90 87 82 81 78 49 37 41 49 55 58 57 54 51 57 63 71 76 79 82 86 94 92 93 89
95 93 90 93 90 90 91 88 83 81 59 34 33 33 32 32 33 35 33 32 32 43 53 66 71 70 68 72 73 83 88 92 86
94 93 94 90 88 90 83 58 37 35 33 29 28 26 23 22 21 24 36 53 56 54 52 55 56 57 52 47 51 61 62 63 59
96 95 93 86 50 37 37 35 33 32 31 28 27 25 22 22 31 40 41 30 34 34 26 23 27 30 26 24 29 38 48 53 53
93 65 35 38 38 37 36 36 34 31 29 28 27 24 19 22 18 21 31 28 21 15 17 22 14 9 8 10 10 21 28 30 36
37 40 39 36 36 37 38 36 32 29 25 23 22 20 19 19 31 24 18 10 8 12 10 5 6 4 4 4 5 8 15 34 44
41 37 40 44 43 41 38 34 28 19 14 15 18 18 18 27 17 19 11 11 8 6 6 5 5 5 6 6 16 21 24 38 58
41 45 48 48 44 39 34 25 18 14 14 15 24 22 26 22 19 11 11 9 7 5 5 4 5 7 9 17 15 14 25 45 68
47 50 50 45 40 35 24 16 14 14 14 15 21 25 28 29 37 23 9 12 10 10 10 11 13 14 23 23 28 23 42 59 66
52 49 42 37 32 22 16 14 15 15 17 19 19 18 19 24 47 50 34 14 9 10 16 16 16 26 31 38 39 58 64 74 81

GFSFLT1_850_rhum_039.txt.gz
RH
40 32 27 27 24 24 25 27 39 43 43 34 28 29 32 29 30 29 30 39 48 56 70 96 93 91 78 91 93 83 85 92 87
46 33 28 26 23 22 23 24 26 29 32 34 36 39 41 49 58 59 52 36 27 42 63 93 94 91 96 99 97 96 94 73 50
51 33 32 33 31 31 34 36 38 40 42 46 52 50 61 66 68 69 67 60 54 41 42 54 89 93 88 94 92 87 95 89 97
41 36 38 38 38 39 40 42 44 46 50 54 56 62 70 69 71 73 74 77 79 79 78 74 72 94 94 91 70 52 63 88 93
47 48 44 44 44 44 47 49 53 56 63 67 72 78 85 86 85 85 85 86 85 85 84 84 83 90 90 85 84 82 76 59 63
55 57 56 56 57 57 57 58 65 71 78 83 88 89 89 86 84 83 81 82 82 84 85 84 84 89 88 87 86 86 84 80 77
66 62 60 61 64 67 71 78 82 84 84 86 87 87 86 84 82 80 78 78 78 81 82 85 89 90 89 88 88 88 90 100 99
64 66 68 69 75 81 86 90 90 89 89 86 84 82 81 81 81 83 82 76 75 77 75 82 94 90 88 87 84 82 88 92 90
71 73 74 77 82 87 93 93 93 93 92 86 85 85 90 89 88 84 80 73 79 82 86 84 80 76 76 73 89 92 92 91 87
80 80 79 82 87 94 92 88 87 87 88 83 80 83 87 74 61 62 64 67 69 69 65 58 56 60 68 75 90 95 94 89 91
88 88 90 93 94 92 87 90 87 85 82 81 75 44 35 34 34 34 35 40 42 42 40 41 48 54 59 71 78 83 86 91 96
95 97 98 96 94 88 87 88 89 83 66 39 34 31 28 26 24 23 23 25 31 38 42 48 55 60 62 62 63 68 69 68 73
87 89 95 93 90 87 68 44 37 36 34 33 32 30 28 26 23 24 37 46 49 40 35 35 32 34 36 40 45 44 43 47 53
90 94 96 92 53 37 38 36 36 35 34 32 31 29 26 24 23 27 22 27 28 28 22 18 22 24 19 15 14 13 14 19 23
92 89 42 38 38 36 36 36 36 34 32 30 27 22 20 20 22 20 25 20 16 10 8 10 11 6 4 4 3 4 5 9 16
52 38 39 36 42 42 39 37 35 31 27 24 22 19 19 16 19 27 19 13 7 7 4 4 4 4 3 4 4 4 4 17 51
41 39 43 46 46 42 37 34 30 21 19 18 19 16 15 20 25 11 12 9 9 6 6 5 4 4 5 5 5 6 7 16 62
41 45 48 47 41 34 31 27 22 19 17 15 21 19 23 19 14 12 12 12 8 6 5 4 4 6 6 7 8 9 12 40 75
46 50 47 41 33 28 25 21 19 16 15 16 20 22 25 25 27 18 12 12 8 6 5 5 6 6 8 12 16 16 26 55 76
51 47 43 34 27 24 21 18 16 14 17 19 19 18 19 24 44 44 25 11 8 6 7 7 7 9 14 22 24 32 62 73 82

GFSFLT1_850_rhum_042.txt.gz
RH
41 36 26 26 23 24 26 30 38 45 43 33 27 30 30 36 42 42 38 29 27 36 45 55 93 93 88 82 66 72 71 77 87
48 40 28 24 24 24 26 27 30 32 34 39 45 48 56 64 65 62 56 50 43 33 35 48 83 93 88 84 96 93 94 98 98
57 46 36 37 38 38 40 41 43 47 49 53 63 61 70 73 73 75 76 78 77 75 67 58 56 84 92 79 81 80 76 84 84
53 46 47 47 46 46 47 49 51 54 60 66 67 73 81 84 86 86 87 87 87 86 84 81 79 72 78 84 78 76 75 58 59
52 55 56 57 56 54 60 59 65 70 74 78 84 87 90 87 86 87 87 87 88 86 84 83 81 80 77 84 82 81 82 78 75
60 67 66 66 65 64 66 72 78 80 84 86 89 88 86 84 82 83 82 80 82 78 80 88 90 86 87 90 90 92 90 88 84
69 71 66 67 70 75 79 82 85 85 84 87 86 85 84 85 84 82 84 81 80 78 74 76 75 88 93 89 86 85 84 89 86
69 69 70 71 73 80 85 88 88 89 89 88 86 86 86 89 90 88 85 81 76 72 77 80 79 79 80 80 84 88 90 93 93
76 76 75 76 80 84 90 90 90 89 87 87 85 80 82 81 85 74 61 60 59 66 68 72 70 69 67 70 74 79 80 92 93
82 80 77 79 86 92 93 86 86 86 82 81 80 81 72 48 37 35 34 34 36 42 46 49 48 46 46 50 60 72 83 88 88
87 87 89 93 96 93 88 86 86 87 82 77 68 41 34 32 29 27 25 24 26 30 33 34 38 40 48 56 59 63 69 77 78
89 91 90 94 95 93 89 86 75 53 40 36 35 33 32 30 28 26 24 27 34 41 45 44 40 39 41 47 54 59 62 63 65
85 88 91 88 92 90 61 38 37 36 35 34 32 31 30 29 27 26 30 40 41 37 30 26 22 22 24 26 26 25 24 27 35
93 90 87 94 83 38 37 35 34 32 28 27 26 25 23 22 21 25 27 22 22 20 13 10 10 9 9 10 8 6 5 5 6
92 83 84 39 39 37 40 38 32 28 27 26 23 20 19 19 23 23 20 22 20 13 10 7 5 5 4 4 4 4 4 4 5
84 61 38 38 43 44 40 32 27 26 25 22 19 15 17 13 16 18 23 19 9 9 8 6 5 4 4 4 4 4 4 4 11
48 39 40 44 46 42 35 27 25 24 23 19 15 12 11 16 16 10 10 10 9 8 6 5 5 4 4 4 4 4 5 7 28
40 41 46 47 45 39 28 25 24 22 17 13 13 15 17 16 14 11 11 11 8 7 6 6 6 6 6 6 6 6 7 15 72
43 46 48 47 41 29 25 24 22 15 12 14 16 18 19 20 20 13 10 10 9 8 8 8 7 7 7 8 10 11 12 60 81
47 49 49 44 32 25 24 20 14 12 15 17 16 14 14 17 39 34 16 11 11 11 10 9 8 8 10 13 16 24 77 83 85

GFSFLT1_850_rhum_045.txt.gz
RH
32 30 28 28 27 30 41 50 58 57 58 47 34 38 42 55 63 63 56 46 32 29 35 48 64 74 70 82 72 59 71 78 80
36 34 30 31 34 34 35 35 37 38 43 58 75 60 64 70 73 74 74 70 66 62 39 39 49 88 92 89 83 94 91 75 94
47 39 40 40 42 42 46 48 51 54 55 59 62 67 71 74 76 78 78 76 78 79 78 75 70 58 83 86 75 58 77 77 79
54 47 50 50 48 48 50 52 55 59 66 68 70 75 81 83 83 82 82 83 83 80 78 80 76 72 72 69 76 72 74 74 69
74 58 58 60 56 57 62 62 64 69 74 78 82 83 84 84 82 81 81 80 80 80 79 84 86 88 86 79 83 86 85 82 77
62 65 64 63 65 65 67 70 75 80 83 82 84 86 84 84 84 83 82 82 79 76 79 75 79 82 87 90 91 92 90 87 85
67 72 69 67 70 71 76 80 82 84 86 87 87 85 86 85 87 88 87 85 83 79 76 77 76 76 76 80 87 85 84 87 91
74 70 67 71 73 77 83 88 90 89 87 86 86 84 80 80 77 77 77 66 60 63 64 69 71 72 68 71 73 76 76 73 73
71 69 71 75 78 84 88 90 84 82 85 81 82 81 78 76 63 42 35 34 35 38 45 52 54 54 52 50 50 50 51 55 61
77 77 79 80 86 93 93 87 86 85 86 85 81 76 62 40 34 32 29 27 27 29 32 34 35 35 37 41 42 45 52 59 62
86 84 84 90 92 95 88 88 87 85 73 56 43 36 34 33 32 30 28 26 27 30 33 36 38 40 42 45 49 55 61 65 67
80 80 78 87 86 91 92 88 60 39 37 36 35 34 32 30 29 28 28 30 35 39 40 34 29 25 23 23 26 29 32 35 38
79 82 82 85 85 89 79 38 37 35 34 30 26 25 25 24 24 26 29 31 26 23 21 16 11 9 8 7 6 6 8 8 10
94 91 86 84 90 60 37 37 38 35 26 20 21 20 20 21 21 24 26 26 21 22 20 12 9 7 6 5 4 4 4 4 4
94 92 87 77 38 38 41 42 37 27 20 20 20 17 16 17 21 26 20 20 24 18 10 8 7 6 5 4 4 4 4 4 4
97 86 57 38 38 43 44 40 28 22 21 19 13 10 15 9 12 17 14 10 12 10 9 7 6 5 5 5 5 5 4 4 4
79 53 40 39 43 45 42 29 22 22 20 12 10 9 10 15 15 11 10 9 9 7 7 8 8 8 7 7 6 6 6 6 7
50 41 40 44 46 45 35 24 23 19 12 10 12 14 19 13 10 10 9 9 9 10 9 8 8 7 8 8 7 7 7 7 20
44 44 45 47 48 41 28 22 18 12 11 13 14 13 13 17 26 11 12 12 11 11 10 10 10 10 10 10 10 10 10 24 86
45 47 48 49 45 33 23 18 12 11 14 14 12 11 12 14 25 32 17 14 14 14 13 13 12 12 12 12 12 13 39 83 90

GFSFLT1_850_rhum_048.txt.gz
RH
36 33 30 31 31 41 58 68 77 71 64 55 36 40 50 66 96 85 78 48 40 29 26 34 50 64 66 62 71 65 63 75 81
33 31 28 28 28 28 28 34 39 38 38 55 89 60 64 73 96 95 76 68 66 64 58 49 37 40 80 84 74 80 88 81 75
38 36 37 37 38 40 44 47 47 48 51 54 57 62 66 87 97 93 81 76 75 72 70 69 68 68 59 72 83 77 58 59 61
42 44 44 45 46 47 48 49 52 54 59 61 66 71 77 81 93 80 90 82 82 81 76 80 86 82 78 72 69 73 83 76 74
46 48 48 50 51 54 54 57 59 65 71 75 78 81 82 97 90 96 84 80 81 80 80 78 76 85 89 94 95 88 84 83 83
56 53 54 58 58 60 62 64 67 75 79 81 83 84 93 94 89 94 83 83 82 82 78 78 77 72 73 76 78 89 92 94 94
63 58 60 61 64 64 69 76 80 82 93 93 85 85 83 80 81 78 74 80 78 74 70 64 68 68 70 74 75 74 75 77 76
66 68 68 68 69 77 80 86 89 86 84 82 82 80 79 76 74 67 54 45 41 46 49 52 56 57 56 63 68 63 60 58 54
87 88 68 71 76 84 86 95 86 82 83 84 85 80 76 70 58 36 33 32 31 33 38 37 37 40 44 45 44 41 41 44 48
83 74 76 77 80 89 94 89 86 86 85 77 63 50 41 35 34 32 31 30 28 28 29 28 28 28 31 34 35 38 43 45 50
81 81 80 79 83 84 90 85 87 87 55 37 35 34 33 32 32 31 30 29 29 29 31 32 36 36 34 31 28 26 27 29 35
76 76 74 76 80 82 86 90 74 37 35 34 32 27 25 25 25 26 28 29 30 34 36 33 24 16 11 9 9 9 8 9 10
76 79 84 81 82 84 87 54 36 37 37 29 21 19 20 21 22 24 26 29 27 24 23 21 19 13 8 7 6 5 5 4 4
82 85 91 86 86 88 43 37 41 39 30 19 18 18 18 19 21 24 25 26 24 21 20 17 12 8 7 6 5 5 4 4 4
86 92 92 87 76 38 39 42 42 33 20 18 16 12 13 15 20 25 28 19 14 13 14 11 7 6 6 7 7 7 7 7 6
91 95 92 71 39 40 43 43 37 23 17 14 12 9 11 10 13 20 20 13 11 9 9 7 8 8 8 7 7 7 7 7 6
99 96 77 42 42 44 44 40 29 19 15 10 18 24 25 26 20 15 11 13 9 8 9 9 9 10 9 9 9 9 9 8 8
97 70 43 42 44 45 43 36 22 16 12 10 12 24 23 22 21 13 15 13 12 11 11 11 11 11 10 10 10 9 9 8 10
76 47 45 45 46 45 40 28 17 12 11 14 12 10 10 24 22 26 29 29 32 37 29 17 14 13 14 14 13 11 12 16 44
62 51 46 46 46 43 32 21 13 12 13 13 11 11 17 26 40 31 27 33 37 40 43 41 25 34 42 46 44 57 55 84 91

GFSFLT1_850_rhum_051.txt.gz
RH
32 27 25 26 30 53 86 78 76 78 67 50 31 40 53 81 91 93 93 94 63 56 41 26 30 40 46 54 54 57 56 58 64
29 28 28 29 28 30 35 42 46 41 34 32 42 46 56 64 90 92 97 94 68 67 63 64 63 56 54 73 84 70 74 82 84
35 34 35 37 39 40 40 40 39 43 48 51 54 57 60 87 92 97 97 83 78 76 71 75 80 80 76 70 64 79 85 71 57
39 38 39 41 43 44 44 47 49 52 56 60 66 69 72 75 96 92 95 86 79 78 78 82 80 82 86 91 92 82 72 73 79
43 47 44 43 45 48 51 56 58 61 67 72 73 71 82 90 92 93 91 78 78 81 77 75 74 73 71 72 76 83 89 92 92
54 59 51 52 53 54 56 61 67 73 80 78 77 77 87 85 86 87 79 79 84 82 81 76 70 64 62 59 61 62 66 79 84
88 49 52 55 57 57 62 71 79 85 93 86 78 76 71 71 73 67 62 58 60 61 53 55 51 49 53 59 55 51 52 56 57
56 70 56 65 62 79 81 87 98 84 77 74 71 71 65 64 59 57 46 35 33 36 40 38 42 44 49 50 46 44 42 43 41
82 84 89 82 91 94 96 94 84 82 79 79 74 65 54 47 45 36 34 32 30 32 33 34 34 33 33 32 29 28 30 29 30
81 85 86 90 88 93 89 83 80 82 82 71 38 34 33 33 33 34 31 31 30 31 30 28 28 28 31 34 35 34 32 31 29
86 86 91 83 79 78 82 85 85 87 60 34 34 33 31 26 25 32 30 28 28 29 29 30 33 33 30 22 16 12 11 10 10
92 86 71 70 71 76 80 83 87 45 34 37 33 26 20 19 21 26 42 30 28 28 29 27 23 20 18 14 9 7 6 6 6
76 69 71 72 77 79 81 85 38 36 39 33 20 18 16 19 23 26 29 28 32 24 21 20 19 18 14 8 6 6 5 5 5
75 75 74 83 82 82 84 38 38 41 36 21 16 16 14 18 21 32 25 23 24 19 14 11 11 10 7 7 7 7 7 7 7
75 84 79 87 84 82 39 38 41 39 27 16 15 12 10 12 19 25 25 25 17 12 10 9 8 8 8 8 8 8 8 8 8
86 84 91 91 83 44 39 42 42 34 20 14 15 20 15 13 18 19 25 32 18 14 13 10 10 9 9 10 9 9 9 8 8
94 92 93 93 61 40 42 42 36 29 17 11 19 28 27 32 22 28 22 16 17 17 13 11 11 11 11 11 10 9 9 8 8
98 98 98 88 42 43 44 41 30 21 15 11 11 28 28 24 20 21 27 20 30 19 17 16 14 14 13 13 15 14 12 10 12
99 98 78 59 51 44 44 36 27 17 13 14 13 11 11 26 25 24 29 28 26 32 32 30 23 20 20 23 25 23 30 19 51
98 78 48 63 63 46 44 31 22 15 13 13 11 12 19 29 37 39 29 27 32 34 37 39 40 33 39 38 42 59 69 84 90

GFSFLT1_850_rhum_054.txt.gz
RH
22 20 20 21 26 40 68 60 67 78 60 40 25 41 61 90 90 94 94 84 70 65 60 58 42 33 36 42 64 58 60 56 64
23 21 20 21 26 34 44 43 48 42 31 31 44 53 67 88 91 91 89 89 79 74 77 82 83 79 73 66 59 79 70 57 73
25 25 27 27 26 27 28 28 30 37 46 49 52 57 66 86 91 90 94 95 82 78 87 83 85 83 86 87 87 74 68 79 79
31 33 34 36 38 39 40 44 47 51 54 59 66 70 76 90 92 91 92 87 77 81 74 72 73 72 71 73 80 85 89 92 82
37 39 39 40 42 46 48 51 53 57 67 71 71 78 87 89 88 87 85 84 79 78 74 72 74 67 68 65 61 65 68 72 87
42 43 44 44 48 50 53 56 64 75 84 83 75 80 78 82 84 80 70 61 57 65 57 55 50 50 52 51 50 53 55 60 65
72 55 50 51 51 53 59 69 80 90 87 78 74 74 70 69 64 56 52 50 42 40 39 36 38 42 45 45 44 44 45 45 44
76 57 54 54 57 68 75 91 89 83 79 74 72 66 62 59 55 47 40 35 33 37 34 34 34 35 36 34 30 28 27 27 26
64 68 75 67 82 90 91 93 87 79 76 77 70 48 41 38 35 32 31 32 32 31 31 31 30 28 28 27 27 27 28 29 29
78 85 80 82 89 93 89 86 80 79 80 77 35 33 33 31 30 26 26 27 29 28 28 27 26 27 30 30 27 21 16 13 11
83 84 85 84 71 76 81 83 84 82 73 34 35 35 30 24 22 19 22 26 26 25 25 26 27 27 24 19 17 14 10 7 6
84 82 78 75 68 69 77 82 82 76 34 37 36 28 18 16 17 25 22 24 24 23 23 22 21 19 18 17 14 8 7 6 6
84 82 79 74 76 68 71 80 72 35 38 38 28 18 14 14 19 24 26 22 23 21 19 16 13 12 11 11 7 7 7 7 7
81 76 73 74 78 76 75 75 35 38 40 33 22 15 12 11 17 21 22 22 23 24 17 12 9 8 8 8 8 8 8 8 8
85 77 78 78 83 82 80 39 36 41 38 27 16 13 12 10 11 17 19 16 18 18 14 11 9 9 9 9 10 10 9 9 8
78 79 78 83 88 83 58 38 39 40 33 22 14 14 18 18 20 16 20 21 22 15 14 11 11 12 12 12 12 11 10 9 8
85 83 83 88 91 81 49 38 41 40 29 17 14 22 22 27 28 20 19 21 18 17 19 18 16 16 16 14 13 13 13 13 12
89 89 90 92 95 75 69 48 44 38 26 16 13 15 26 24 16 21 22 20 23 23 23 20 22 20 18 17 17 18 20 20 56
98 98 97 99 91 67 48 43 42 31 20 17 13 12 11 10 12 19 23 26 28 25 22 26 23 23 24 24 25 26 27 31 69
98 99 97 97 72 54 50 42 35 29 19 14 12 12 12 16 24 23 16 17 19 19 21 21 26 28 34 40 42 46 61 73 82

GFSFLT1_850_rhum_057.txt.gz
RH
16 18 20 26 33 63 61 78 83 83 56 27 32 54 83 90 91 91 89 85 74 69 72 62 69 59 54 54 62 72 76 44 54
19 19 20 23 29 47 50 43 43 38 27 35 46 64 85 88 93 90 86 87 81 77 93 89 80 87 88 85 76 62 67 81 72
19 20 20 20 22 25 27 27 27 36 45 48 55 66 85 95 87 90 94 93 83 79 80 82 80 76 74 83 88 92 88 71 75
23 26 28 30 31 33 35 39 45 50 55 62 68 76 89 93 91 88 90 91 83 73 71 68 67 71 71 67 67 69 74 83 91
27 30 33 35 37 39 42 46 51 59 67 71 75 86 88 90 87 86 87 88 73 69 71 71 62 58 52 45 45 46 48 54 64
33 34 36 38 42 45 49 54 64 76 78 72 78 77 75 78 83 81 69 62 59 54 48 46 45 46 44 43 43 43 45 42 43
40 45 43 46 48 50 58 70 80 83 81 74 72 74 70 68 62 54 52 48 41 43 38 39 41 44 42 38 34 34 32 30 30
64 47 49 51 54 58 72 78 79 78 78 73 74 70 64 50 50 46 40 36 38 39 34 37 36 35 33 29 26 25 25 25 25
72 60 56 57 61 67 78 80 84 80 78 75 76 54 44 34 33 32 31 31 32 32 32 31 30 28 28 28 29 28 24 19 16
71 68 69 67 83 82 71 77 80 78 78 79 49 33 34 32 27 22 22 25 28 28 29 27 27 27 29 26 21 17 15 12 9
59 71 80 71 71 89 90 81 78 77 80 58 34 37 32 24 16 16 19 21 25 24 24 24 25 22 20 19 18 16 12 8 7
72 83 82 76 80 81 80 79 81 80 48 34 38 33 23 18 15 16 17 20 22 21 21 20 18 13 12 12 12 10 8 7 7
83 84 78 76 80 76 78 76 80 55 35 38 37 28 18 14 14 16 16 18 19 19 17 15 12 10 8 8 8 8 8 8 8
85 85 77 81 76 74 77 76 72 34 39 39 36 25 15 12 14 16 16 16 17 16 16 14 10 9 9 9 9 10 10 10 9
86 87 83 83 74 76 81 77 43 36 39 38 32 20 14 14 14 16 16 16 15 15 14 12 11 11 12 12 12 12 11 13 13
87 91 86 80 77 79 82 72 38 38 40 39 27 18 16 17 19 19 19 20 20 15 14 16 16 15 16 15 14 13 13 13 19
83 92 89 79 79 83 84 62 40 40 42 41 32 16 21 19 24 24 18 21 22 20 22 20 19 17 17 16 17 17 18 19 50
86 93 88 83 84 89 83 58 51 45 41 38 25 14 17 16 14 18 25 31 23 22 23 24 20 20 18 18 18 20 24 24 59
90 96 92 90 91 90 82 71 42 42 41 36 22 14 12 11 11 15 19 22 22 22 21 19 19 18 20 24 26 28 32 49 74
98 95 92 94 93 93 77 51 43 42 42 32 18 14 12 13 15 17 16 16 17 18 17 16 16 18 25 30 38 42 57 68 75

GFSFLT1_850_rhum_060.txt.gz
RH
13 14 20 48 83 84 83 83 78 78 66 27 50 79 89 86 90 85 85 80 76 74 90 80 78 75 70 65 58 70 81 48 50
15 16 19 32 44 70 60 67 75 52 29 40 58 85 87 82 87 88 90 86 79 88 95 88 88 90 87 89 90 78 64 75 88
17 18 20 24 32 44 39 37 31 36 45 51 61 84 90 91 90 91 91 87 84 72 73 75 74 74 72 76 86 92 94 89 77
19 20 20 23 25 26 27 32 44 49 55 64 70 82 90 88 90 86 87 85 87 75 72 74 85 82 72 65 66 66 68 74 86
24 28 32 33 35 38 42 46 50 57 67 71 79 84 85 85 85 86 86 88 77 56 82 78 67 65 52 46 45 44 44 45 51
28 32 35 37 40 44 47 52 59 67 69 72 78 75 73 75 79 79 72 62 59 55 52 52 52 49 47 47 46 44 41 38 38
33 35 37 42 44 47 51 56 64 70 71 70 70 69 69 64 62 58 54 50 53 70 44 46 47 47 41 37 32 29 27 26 24
41 41 41 45 47 51 54 63 70 71 72 70 72 73 62 58 52 49 44 40 56 56 37 42 41 39 33 29 27 27 28 26 24
52 44 48 49 51 60 67 78 80 77 75 74 74 71 44 38 36 33 32 32 37 33 34 34 32 28 28 29 27 24 19 16 14
61 55 54 57 60 73 80 82 86 84 79 75 78 42 33 35 30 23 21 23 26 30 30 28 26 26 25 22 19 18 16 13 10
61 69 64 70 71 80 79 82 85 83 82 80 60 35 36 29 20 16 16 22 26 27 26 24 23 20 18 14 14 13 12 10 8
64 61 72 75 75 82 83 88 87 83 84 75 36 38 31 23 16 14 16 18 22 23 23 21 18 13 11 9 9 9 9 8 8
70 68 72 76 75 84 88 86 81 81 76 36 39 33 26 17 13 12 16 17 19 19 19 17 15 12 10 9 10 11 10 9 9
74 71 80 84 79 84 81 79 78 79 37 39 38 30 21 16 13 13 15 18 17 15 16 16 13 12 11 12 12 13 13 11 10
76 80 84 84 82 86 79 77 76 65 36 39 36 27 21 16 15 16 20 19 18 18 18 16 16 17 16 15 14 14 13 12 12
76 82 86 87 84 86 77 79 77 44 37 39 34 27 21 21 18 20 22 23 22 20 18 18 19 18 16 16 16 14 13 13 15
77 79 87 89 90 90 80 84 75 44 38 40 36 25 28 25 18 23 25 21 24 23 21 21 22 20 17 16 14 15 14 14 33
81 78 80 89 91 89 83 86 75 47 42 41 34 24 19 18 16 16 19 23 28 24 23 24 23 20 17 15 14 15 15 21 58
71 84 84 88 96 90 87 87 82 54 45 40 37 25 23 14 12 16 18 22 26 24 22 20 19 18 15 15 17 17 20 34 76
70 70 87 90 95 90 89 90 86 53 38 42 36 27 23 14 13 14 16 18 19 19 18 18 16 15 16 16 17 20 26 32 77

GFSFLT1_850_rhum_063.txt.gz
RH
14 21 84 80 78 81 81 81 81 76 62 35 68 82 83 85 74 82 80 81 83 94 92 86 80 84 84 78 66 64 84 72 57
14 14 31 65 69 78 80 80 80 73 30 51 79 82 80 86 89 88 84 86 88 89 88 84 84 82 87 98 98 97 73 76 88
14 14 20 33 42 60 48 49 50 32 44 63 74 78 81 86 87 88 80 83 80 68 62 65 81 86 79 80 87 86 92 96 88
15 16 20 26 35 43 35 33 42 49 54 63 67 77 80 81 84 84 86 84 82 62 68 82 84 85 63 56 51 53 63 73 85
18 20 22 25 27 29 34 45 51 57 63 68 70 78 83 83 83 86 86 84 69 72 76 68 69 63 45 42 43 41 41 42 45
23 28 30 33 37 42 47 51 59 66 67 69 73 75 74 74 76 75 68 62 64 56 53 51 49 43 43 43 41 38 35 33 33
27 32 35 38 43 47 52 59 73 75 70 68 69 69 69 65 61 59 56 55 86 54 41 45 46 46 38 33 29 26 25 24 24
31 34 38 43 47 51 57 66 80 86 76 71 71 73 68 59 53 47 45 44 58 42 34 35 37 36 30 26 25 26 25 22 19
34 36 40 45 51 55 61 73 78 78 78 75 73 73 66 48 38 34 32 29 32 31 28 30 29 28 28 27 24 21 18 16 14
42 46 46 51 54 60 67 76 79 82 81 78 74 76 41 35 35 27 21 19 23 27 30 28 25 25 24 20 17 14 14 14 13
56 55 50 54 58 73 78 80 82 85 83 82 80 67 36 36 27 19 18 21 25 28 27 25 22 20 16 12 14 11 9 8 9
71 67 62 67 72 83 83 83 85 85 82 84 82 36 38 30 22 16 17 21 25 25 23 22 19 15 13 12 16 16 11 10 9
67 69 69 75 81 80 82 84 87 85 83 83 42 39 34 27 18 14 14 18 21 20 19 20 17 14 11 10 10 13 15 12 11
65 70 65 77 83 79 82 86 88 84 80 62 38 38 32 23 17 14 14 15 15 15 17 17 15 14 14 14 13 12 13 13 13
68 74 75 80 83 82 86 90 87 81 79 38 38 36 30 24 18 17 18 16 16 15 17 17 16 16 16 15 14 13 12 12 14
77 76 79 81 82 85 85 90 85 79 74 38 38 34 29 25 21 20 23 23 24 15 17 18 18 17 17 15 14 13 12 12 15
79 77 75 78 83 90 90 91 81 80 64 39 37 32 32 28 26 22 26 26 17 18 22 21 20 19 18 16 15 13 12 13 22
66 66 76 74 81 88 90 92 81 83 65 45 38 32 31 25 24 24 22 22 20 24 26 24 22 18 17 16 15 14 14 13 40
60 64 76 79 82 89 95 96 84 85 71 53 46 37 31 22 18 20 16 17 24 27 25 23 19 18 17 15 15 16 14 14 23
63 59 70 85 89 96 98 96 88 85 81 67 40 38 32 26 19 16 17 18 22 22 21 19 19 17 16 15 14 14 12 11 17

GFSFLT1_850_rhum_066.txt.gz
RH
19 88 88 86 71 85 99 86 78 75 46 39 58 69 71 71 77 76 82 95 93 98 90 88 91 93 90 88 88 71 78 78 84
14 19 80 77 70 74 82 77 78 75 32 56 77 79 80 85 84 80 89 96 87 87 76 80 91 88 97 99 96 96 90 89 91
14 16 35 50 64 72 74 76 77 35 42 62 80 81 86 84 83 80 79 84 76 67 69 74 86 78 72 76 78 77 89 97 98
15 16 24 32 39 52 42 44 36 47 55 68 75 82 83 86 86 83 84 82 75 75 88 92 80 68 52 47 45 45 49 66 73
16 18 22 26 31 32 32 38 49 54 58 65 71 81 85 84 85 87 85 75 79 63 54 57 52 40 38 41 42 41 40 39 39
19 21 25 27 29 32 40 50 55 62 68 73 80 83 80 79 79 70 61 63 70 50 44 44 39 37 37 37 35 33 30 27 26
25 28 32 37 41 45 50 56 63 69 71 75 78 73 71 68 64 59 56 82 72 41 35 34 34 34 32 26 23 24 22 22 23
29 32 35 40 46 50 53 60 70 73 71 71 70 72 72 60 53 47 45 72 63 38 29 27 30 29 25 23 22 22 20 18 16
31 35 39 44 48 54 59 70 78 79 79 75 73 72 73 48 37 35 33 34 38 34 26 27 26 24 22 21 18 16 14 14 14
32 37 41 48 52 58 66 74 80 78 78 77 76 75 72 35 36 31 22 20 22 27 26 24 23 21 19 16 12 10 9 8 8
35 41 44 49 55 60 69 79 85 84 84 79 80 79 58 37 34 24 18 17 17 18 19 20 19 17 14 12 12 10 9 8 8
53 49 48 51 57 63 75 81 87 86 86 81 82 81 38 38 30 21 16 16 18 19 17 16 15 14 13 10 10 12 9 10 10
57 65 66 63 68 73 79 84 86 87 86 83 83 57 38 35 27 19 15 16 16 18 18 17 15 14 11 11 11 12 12 12 11
50 66 74 78 76 80 80 85 88 89 86 84 81 39 38 33 25 19 16 16 19 20 18 17 16 13 13 14 14 13 12 12 12
46 61 72 73 72 82 84 85 91 89 87 83 69 38 37 32 24 20 19 18 18 18 19 18 17 15 15 14 14 14 12 12 12
66 65 70 74 69 74 85 86 91 90 88 82 62 38 36 31 28 24 22 22 22 22 21 22 19 16 16 15 14 14 14 12 12
69 77 71 72 70 74 87 88 87 91 89 80 55 36 34 33 33 27 26 23 24 25 23 22 19 18 17 16 15 14 13 12 12
69 69 79 78 74 72 82 87 91 94 90 80 55 37 37 33 33 31 25 25 27 26 22 22 22 20 18 16 16 15 14 13 12
63 62 61 74 79 76 81 87 94 98 91 86 64 54 46 29 29 30 26 22 22 26 24 23 22 21 18 17 16 16 15 14 12
59 60 62 67 75 85 84 88 93 96 95 93 71 81 52 36 30 21 24 22 20 20 23 24 21 19 19 17 17 15 14 13 10

GFSFLT1_850_rhum_069.txt.gz
RH
55 94 84 64 44 67 98 94 77 66 30 48 64 68 66 72 71 82 99 98 97 94 85 96 91 92 96 99 94 74 82 82 94
77 98 87 75 84 91 98 80 76 64 33 60 69 72 75 72 73 86 89 90 88 80 63 86 86 90 94 88 94 98 95 94 95
19 62 86 73 68 77 75 72 69 34 41 63 69 75 77 77 73 72 81 82 65 67 74 70 68 65 72 72 74 73 82 87 90
17 24 52 54 59 62 57 58 39 34 48 62 71 80 81 81 81 78 76 76 75 75 73 72 50 48 40 36 36 35 36 41 50
16 20 38 41 46 46 39 36 40 45 54 64 73 84 87 86 85 83 72 72 74 55 52 48 42 37 34 33 33 33 31 30 31
19 22 26 32 39 37 36 44 48 52 62 69 76 82 81 80 79 66 64 82 63 46 39 39 36 29 27 27 25 23 21 20 19
21 24 28 30 34 36 45 52 56 64 69 72 79 75 71 68 63 57 50 78 52 37 28 26 25 25 23 21 20 20 20 19 18
25 29 32 35 39 43 50 54 64 69 71 75 71 71 72 64 52 46 53 61 37 28 21 18 21 21 21 20 20 18 16 15 14
28 32 36 40 43 46 50 56 65 72 73 72 72 72 72 62 37 36 35 36 35 24 18 18 20 20 19 18 15 11 9 9 9
29 34 37 41 46 50 53 57 68 73 75 75 75 75 75 54 36 35 28 24 22 22 20 19 19 18 17 13 10 9 9 8 8
31 37 39 43 49 53 56 61 69 75 76 78 77 78 78 44 37 31 23 20 20 22 22 20 18 16 14 12 11 8 8 8 9
35 38 42 47 52 56 60 64 71 76 78 81 79 80 79 38 37 29 21 18 18 19 20 20 18 15 14 12 10 10 10 10 10
42 45 49 54 55 57 62 70 78 81 83 82 79 81 66 38 35 27 21 17 17 18 19 16 15 15 13 12 12 12 12 11 11
43 46 61 64 63 63 66 72 82 84 86 84 81 80 53 38 35 28 22 18 17 17 16 15 15 15 13 13 13 13 12 12 12
53 44 56 74 80 78 78 83 88 88 91 90 84 80 47 37 35 29 24 20 20 20 18 19 18 16 15 16 15 13 13 13 13
63 54 47 68 79 78 79 86 89 92 93 91 87 79 52 37 35 31 28 24 23 22 22 22 19 19 18 18 16 14 14 13 13
69 66 58 56 71 75 75 81 88 89 95 91 87 66 55 44 37 33 31 28 26 24 25 24 22 22 22 19 17 15 14 14 13
69 67 72 68 69 71 71 74 86 88 90 92 83 59 54 44 42 37 35 31 28 27 27 27 24 24 24 20 17 16 15 14 13
63 66 66 75 79 76 74 77 80 89 93 93 93 83 70 44 46 50 35 32 30 29 28 27 25 26 24 20 18 16 15 14 13
64 64 63 62 70 74 79 82 83 88 95 96 94 89 84 83 77 41 36 34 31 27 25 25 25 26 23 19 19 18 17 14 12

GFSFLT1_850_rhum_072.txt.gz
RH
63 87 77 67 58 92 95 82 71 45 41 57 62 60 64 76 98 97 95 93 94 87 92 93 93 95 99 88 84 80 89 87 91
94 94 75 53 58 96 94 86 67 38 48 63 66 68 68 94 98 100 100 95 86 87 66 82 85 92 90 89 96 97 93 88 86
77 95 79 71 77 94 93 74 63 31 53 64 69 71 71 92 95 99 98 76 86 78 63 63 64 72 77 82 85 79 79 80 74
23 78 82 75 79 83 73 68 57 32 55 67 72 74 75 95 93 93 92 71 78 85 66 49 42 43 39 35 35 36 38 39 39
18 44 74 64 70 69 55 52 32 42 56 65 72 76 80 96 84 94 91 81 69 54 47 43 37 37 33 32 31 28 27 26 27
20 44 49 51 60 59 42 36 42 48 57 66 75 82 89 90 87 88 69 71 58 40 34 30 31 28 27 26 23 20 19 18 18
48 27 36 37 40 42 38 42 48 57 67 68 73 81 73 72 67 76 60 60 55 34 27 22 21 21 21 20 19 18 18 16 16
24 28 32 43 41 37 40 47 56 67 68 70 74 71 73 72 64 53 55 57 39 29 20 17 20 19 18 17 17 14 12 11 10
49 64 77 75 42 93 93 94 81 66 69 70 70 71 70 70 47 59 37 37 33 24 21 20 20 20 18 15 12 9 9 8 8
39 54 58 60 75 89 93 93 74 79 74 72 72 72 72 72 37 72 34 30 29 22 20 21 21 20 18 13 11 9 8 8 8
29 33 38 44 46 72 87 86 69 73 74 76 75 75 75 75 38 78 47 28 26 23 21 21 20 18 15 13 10 9 9 10 9
26 32 33 37 42 54 69 75 70 75 75 78 78 76 77 76 38 37 73 26 22 22 22 18 17 16 14 14 12 12 12 11 10
31 34 34 41 47 50 56 61 67 77 80 81 81 78 79 73 38 36 29 24 24 18 19 18 16 15 15 13 13 14 13 13 12
40 46 50 52 54 54 58 63 67 78 81 82 82 78 79 70 38 35 31 25 20 20 18 17 16 16 15 14 14 14 14 14 13
59 52 61 70 69 65 59 60 64 75 84 88 86 83 80 72 38 36 33 28 24 21 21 20 19 18 17 15 15 15 15 14 13
75 68 56 54 66 80 67 66 70 76 87 94 90 86 82 75 45 36 35 32 28 26 24 22 22 21 20 18 18 18 17 15 13
70 71 65 57 57 95 85 80 73 83 88 92 77 69 73 77 67 47 37 34 32 31 27 25 26 25 23 22 22 19 18 15 14
63 61 71 73 62 62 75 76 75 77 83 92 81 73 68 60 61 55 44 37 34 33 30 27 29 29 27 26 24 21 18 16 14
59 62 59 63 69 62 57 65 72 80 78 91 90 86 66 54 51 48 43 40 39 35 33 30 30 30 28 27 26 21 18 17 15
57 56 57 60 63 64 72 68 75 76 81 79 89 90 89 84 66 57 62 56 59 53 35 33 34 30 28 26 26 20 18 17 16

GFSFLT1_850_rhum_075.txt.gz
RH
82 88 71 41 90 93 89 76 61 30 44 49 52 59 73 94 93 92 95 93 88 93 93 88 93 92 85 90 86 94 92 94 92
95 81 63 52 92 93 91 82 59 31 56 59 59 64 84 88 93 92 94 89 91 93 82 82 90 90 87 94 92 91 89 89 92
98 84 56 52 92 98 94 78 57 33 57 61 65 67 83 85 91 91 90 82 82 86 66 61 64 71 79 85 86 82 79 75 74
86 92 69 83 86 91 84 63 52 33 55 60 65 69 81 91 90 84 87 79 76 64 46 41 39 39 37 36 37 38 37 36 35
35 81 82 82 80 74 67 61 39 36 52 61 68 71 80 91 92 88 69 68 55 41 32 25 26 27 26 25 24 23 22 21 22
21 74 78 63 60 57 51 45 33 44 54 60 67 73 89 86 84 90 50 53 50 35 25 21 20 20 20 19 17 16 16 16 16
52 33 38 51 47 50 37 35 44 50 61 63 68 80 85 79 74 78 43 44 46 33 22 20 19 20 19 18 17 16 15 13 12
45 30 29 35 32 38 35 38 47 68 83 84 84 80 74 73 75 70 39 45 42 31 21 18 18 18 18 17 16 12 10 9 8
64 65 38 47 35 60 43 64 84 93 82 78 77 74 71 68 69 67 40 38 34 27 19 16 16 17 18 15 11 10 9 9 8
70 74 79 82 73 84 91 89 88 92 78 73 72 71 68 68 60 64 59 37 32 24 19 15 14 15 14 11 11 9 8 8 9
70 72 80 84 84 85 88 89 89 90 84 70 70 69 70 71 67 79 53 35 30 24 18 15 15 14 12 11 10 9 10 10 10
68 70 76 80 84 84 88 89 87 83 81 71 64 68 68 72 72 71 77 47 29 22 18 16 17 14 14 13 11 11 12 11 11
64 67 74 77 82 83 87 90 90 79 71 68 65 70 72 73 72 44 60 52 33 25 18 16 16 15 14 14 13 12 13 13 13
57 65 72 76 79 84 84 89 83 77 72 71 68 75 75 76 72 45 41 38 36 29 24 19 19 17 17 15 14 14 14 14 14
71 68 73 78 79 81 82 86 86 81 74 72 68 78 80 77 75 55 39 38 33 28 26 24 22 20 19 18 16 15 16 16 16
85 74 78 76 75 81 88 89 87 78 83 79 71 76 82 80 78 72 42 38 36 31 28 28 26 24 22 21 19 18 19 18 18
82 75 77 81 81 89 94 92 88 81 75 74 74 75 73 81 80 76 59 45 41 36 32 31 29 28 26 26 23 22 22 20 19
74 74 79 86 86 81 87 89 88 86 77 76 78 78 74 64 64 72 68 55 49 43 37 34 32 30 30 29 28 25 24 23 19
73 78 76 86 91 84 77 82 83 86 85 79 79 76 68 66 60 62 61 57 50 46 41 38 35 34 34 32 30 27 25 24 20
68 92 64 78 85 93 86 87 94 81 89 78 75 80 81 71 62 58 59 54 49 46 43 41 43 40 36 34 33 29 27 23 20

GFSFLT1_850_rhum_078.txt.gz
RH
76 70 43 60 95 89 82 66 29 35 40 47 57 90 92 92 89 96 95 90 93 92 91 95 91 83 89 92 94 86 86 87 92
92 77 49 74 92 94 88 72 32 49 51 53 63 89 90 88 88 86 90 93 90 76 61 72 82 86 78 82 85 85 83 85 86
85 68 49 79 92 98 90 70 38 50 54 57 63 80 88 88 87 83 81 89 75 54 52 52 54 57 66 67 62 55 56 56 54
96 76 48 63 89 84 83 61 42 46 54 60 65 79 90 87 89 86 77 76 66 41 34 35 31 32 32 32 33 34 33 32 32
77 82 78 78 77 75 62 54 39 41 52 59 64 72 87 73 86 86 78 60 48 33 26 21 21 21 20 20 19 18 17 17 17
37 58 74 62 59 54 51 45 31 38 49 57 64 76 88 88 85 80 55 46 46 33 23 18 17 17 18 16 15 15 15 14 14
25 33 30 47 40 41 40 34 33 41 50 56 64 77 84 80 72 67 52 40 39 28 19 14 14 15 15 15 14 13 11 9 9
40 33 26 31 32 34 33 31 38 48 58 65 68 78 80 74 72 61 44 36 38 27 20 14 12 13 14 13 11 9 9 8 8
49 28 26 27 28 29 31 32 42 56 83 78 80 77 75 70 70 65 52 35 33 27 20 14 12 12 12 11 9 9 8 8 8
40 43 37 29 35 35 44 45 57 76 76 75 77 74 72 66 65 59 49 42 31 27 20 15 12 12 10 10 10 9 9 9 9
48 65 66 59 64 68 80 83 89 87 78 71 73 70 66 66 68 62 56 45 33 28 22 15 12 12 12 12 11 11 11 12 12
56 61 65 71 76 76 85 86 89 87 90 81 68 66 65 69 70 67 59 42 40 30 24 17 15 15 17 18 14 14 14 16 16
63 54 56 63 66 73 83 85 89 87 85 82 72 63 65 66 68 71 59 40 39 34 27 20 18 19 19 19 16 15 15 17 18
57 53 48 54 58 68 70 82 88 88 80 73 68 64 64 71 71 70 60 41 36 36 32 27 21 21 20 19 18 16 16 17 18
69 62 50 54 58 61 68 76 84 84 75 72 69 68 67 72 74 72 70 47 39 36 35 32 28 24 22 20 20 18 17 17 18
67 63 65 62 61 57 61 66 80 89 84 81 74 66 68 73 77 76 74 64 43 40 36 34 31 28 25 22 22 20 19 19 20
72 68 68 72 73 75 71 71 75 81 85 81 80 70 67 70 77 79 79 74 62 46 41 36 35 33 31 28 26 26 24 22 22
86 79 76 80 82 80 79 77 77 75 79 80 76 73 74 66 66 70 79 74 67 61 52 44 39 37 35 33 29 29 28 26 25
73 73 81 81 91 92 88 87 86 90 85 83 78 73 73 73 66 65 63 67 64 63 59 53 46 41 39 35 33 33 33 31 28
70 74 93 97 98 99 99 97 96 95 92 85 77 77 78 76 64 61 60 61 62 63 61 55 50 46 42 39 40 36 35 34 30

GFSFLT1_850_rhum_081.txt.gz
RH
58 39 56 95 92 81 63 26 33 34 48 73 91 92 89 86 90 87 95 98 92 91 89 90 86 91 88 87 85 84 84 83 85
57 38 58 95 91 89 72 29 42 43 52 82 91 90 87 85 82 86 93 93 85 64 56 72 75 75 72 77 79 76 68 68 72
73 44 59 88 93 79 67 36 42 49 53 75 89 90 89 86 79 78 84 83 59 36 38 41 43 48 50 44 38 35 38 36 35
53 42 53 81 77 61 57 40 36 48 55 64 81 89 88 83 86 85 62 57 37 30 27 24 23 24 27 27 27 27 27 27 27
43 38 41 67 66 57 50 41 31 45 54 60 72 76 86 84 76 77 61 49 34 28 21 17 15 14 14 15 14 14 14 14 14
21 36 39 48 54 51 44 39 29 41 51 59 67 77 80 75 77 71 56 40 35 28 20 15 14 14 13 13 13 13 12 12 12
23 25 34 42 42 40 39 34 30 39 46 54 61 73 81 81 69 59 55 38 35 28 20 15 13 13 12 12 12 10 9 8 8
24 23 22 30 35 35 32 29 32 38 46 54 62 70 74 76 64 60 54 38 34 28 21 14 12 12 12 11 9 8 8 8 7
34 34 33 27 29 31 32 29 35 42 54 61 68 72 73 74 61 60 56 42 33 28 23 15 12 11 10 9 9 9 8 8 8
56 34 30 27 29 26 28 30 37 48 56 61 75 73 74 71 63 62 58 44 36 29 25 18 13 11 10 11 11 11 10 11 11
66 38 37 36 32 37 38 41 52 58 62 73 76 76 72 64 63 64 59 54 40 32 28 20 15 13 14 16 14 13 13 14 14
66 44 47 48 48 57 61 69 75 88 88 72 71 74 72 66 64 65 62 60 41 38 30 25 17 17 22 23 18 15 15 16 17
57 54 51 53 59 67 70 82 83 90 90 84 83 73 66 65 65 65 65 63 52 40 35 30 20 20 24 24 23 18 17 18 21
55 50 46 49 50 53 60 73 80 88 88 84 87 81 69 61 64 66 66 64 61 40 40 34 28 21 24 26 24 24 19 18 19
62 57 54 48 44 44 50 58 72 80 87 87 79 77 70 64 63 69 71 68 66 54 39 38 35 29 25 25 25 25 24 21 20
69 67 66 63 53 50 51 54 62 67 85 91 85 74 70 66 66 68 73 73 71 69 53 41 39 36 32 28 26 24 22 21 20
71 67 67 71 69 64 64 66 66 69 81 87 84 80 72 67 62 64 71 75 75 74 69 53 43 40 37 33 30 27 24 24 23
75 65 69 70 77 75 72 74 76 75 79 84 82 78 72 63 57 57 63 72 77 76 73 64 54 47 41 38 35 32 28 27 27
70 84 86 82 86 88 84 83 84 85 84 88 89 85 69 68 69 63 62 68 75 75 69 66 62 57 52 50 45 42 41 35 34
75 79 86 91 95 99 99 97 95 93 94 92 91 89 88 82 78 71 66 66 66 66 63 78 73 69 63 53 48 48 57 55 43

GFSFLT1_850_rhum_084.txt.gz
RH
30 51 94 89 79 46 24 26 34 51 69 77 82 85 82 90 83 94 98 98 83 85 92 86 90 93 92 83 80 78 82 88 91
30 57 93 90 81 58 27 37 40 57 69 71 94 84 85 86 89 92 91 83 77 59 55 64 65 63 67 69 71 66 57 56 62
28 52 81 82 76 62 29 39 42 52 64 74 77 82 79 74 78 82 82 68 39 34 32 33 36 42 43 39 34 32 32 32 32
35 46 74 72 60 49 29 36 45 51 60 68 76 80 73 73 65 60 51 42 32 25 22 19 18 19 21 21 20 20 21 21 21
32 35 62 58 53 45 36 31 41 48 55 66 72 68 66 66 60 53 42 38 32 26 20 16 14 13 12 12 12 12 13 13 13
27 27 40 55 51 45 37 30 37 46 53 59 70 67 58 60 61 56 45 32 31 26 20 15 13 12 12 12 12 12 11 11 11
29 30 37 50 47 41 37 32 31 42 52 59 64 66 63 64 64 57 48 36 31 27 21 16 13 12 12 12 11 9 8 8 8
30 35 45 47 45 40 37 33 30 40 48 56 63 71 67 62 62 61 57 47 33 29 23 16 13 12 11 10 8 9 8 8 8
21 24 29 38 40 39 37 31 33 40 48 54 63 71 69 65 63 60 60 55 38 31 25 18 14 11 10 9 10 10 10 10 10
38 36 33 31 29 31 36 35 34 41 54 61 64 71 68 68 64 62 61 59 47 36 29 23 16 11 11 12 12 13 12 13 13
54 51 33 31 27 28 29 33 34 42 53 61 66 69 71 68 68 63 62 61 56 44 34 28 20 14 14 16 17 14 13 15 15
54 58 39 37 36 35 34 40 47 52 68 77 75 72 70 70 67 66 65 65 61 52 38 33 26 18 18 22 22 17 16 17 18
62 58 46 41 39 42 45 50 58 68 76 77 82 74 73 70 66 65 64 66 65 63 44 38 33 23 20 25 25 22 18 17 19
65 56 52 46 44 44 49 57 62 68 78 85 90 84 82 76 69 61 60 64 67 67 62 42 38 32 23 23 27 26 22 19 18
63 61 62 58 51 49 51 55 66 72 82 90 90 87 85 86 77 67 60 61 68 71 69 60 42 39 34 26 30 39 26 20 18
67 68 69 66 61 55 54 57 62 68 80 90 93 92 88 82 78 70 64 63 65 70 71 70 64 47 42 38 31 44 48 24 21
72 71 69 69 68 68 64 60 63 65 75 86 90 94 85 78 72 69 67 64 65 69 72 72 72 65 53 46 45 39 41 39 36
71 70 73 73 77 75 74 71 68 70 75 77 87 86 82 68 60 58 61 64 65 67 72 73 72 70 65 58 54 51 42 36 66
75 71 68 69 83 90 86 85 83 78 78 82 84 88 87 77 72 68 66 64 65 67 69 73 74 71 69 66 78 76 74 78 64
87 75 75 78 86 91 95 97 95 91 88 87 87 88 92 92 90 85 81 80 74 71 70 71 71 70 71 78 89 81 84 83 73

GFSFLT1_850_rhum_087.txt.gz
RH
66 90 86 72 29 21 20 25 33 43 53 72 69 81 85 84 92 91 94 87 81 85 90 84 93 94 91 78 76 81 95 86 92
39 92 87 76 39 26 26 31 42 55 59 70 78 79 86 88 90 90 88 79 71 56 60 62 58 50 54 54 57 52 43 46 54
36 82 78 72 52 28 33 36 44 55 64 68 67 70 74 75 78 80 76 47 31 28 26 26 27 32 32 31 29 28 27 28 29
34 66 66 62 50 28 36 38 45 55 56 60 63 66 60 53 54 47 44 36 28 24 20 17 16 16 16 16 14 14 14 14 14
29 55 60 60 45 32 34 41 45 52 59 64 67 62 56 56 55 48 36 34 31 26 20 16 13 13 12 12 12 12 12 12 12
26 46 61 61 49 41 32 40 45 51 65 66 64 61 57 59 58 53 45 34 32 28 22 17 14 13 12 12 12 11 10 10 9
33 37 62 68 56 45 38 31 43 51 60 63 62 60 62 64 61 58 52 41 33 30 24 18 14 13 12 12 10 9 9 8 8
41 43 48 66 57 46 38 34 34 48 56 60 63 62 63 66 63 60 59 54 39 32 26 21 15 13 12 10 9 9 9 8 8
24 31 39 41 45 40 38 37 31 38 48 56 63 66 64 63 65 64 62 59 52 35 30 25 18 13 11 10 10 12 11 10 11
23 25 26 30 39 37 38 36 31 35 42 50 57 63 66 66 63 64 64 62 59 52 38 30 23 15 12 12 13 14 13 13 14
43 40 35 31 32 34 35 36 36 34 41 53 59 64 66 67 66 63 61 63 63 58 51 38 31 21 14 14 16 16 15 14 15
56 59 53 34 36 30 30 32 35 35 41 48 58 62 64 66 68 68 66 66 64 64 63 49 41 32 20 18 21 21 16 15 16
65 59 53 45 42 42 39 38 41 44 47 58 71 78 75 71 69 72 70 67 64 67 67 67 50 43 34 23 26 26 22 18 17
70 62 57 59 47 43 43 48 53 61 68 74 78 80 84 87 82 78 76 71 64 63 68 72 67 53 46 38 52 47 34 22 18
61 62 62 67 59 52 50 51 59 62 69 77 83 87 90 90 85 80 79 76 69 63 64 71 72 69 56 51 54 92 74 44 25
62 64 67 68 64 61 59 58 61 64 74 84 83 86 89 89 86 85 79 74 68 64 64 67 72 73 71 60 54 62 97 100 79
67 66 68 70 71 69 70 69 66 67 73 78 82 87 81 73 73 74 73 73 73 68 67 66 69 72 73 72 64 58 81 99 98
67 71 75 77 77 75 76 80 79 74 72 73 82 87 87 76 70 65 66 66 64 67 67 67 68 72 74 76 74 70 67 77 73
75 78 76 71 82 87 86 91 91 90 84 79 79 82 86 86 85 78 78 78 79 79 78 72 69 68 70 73 77 79 89 77 95
75 72 77 79 85 86 91 94 97 98 91 87 86 86 88 91 94 95 83 74 80 80 82 84 80 78 76 74 76 81 86 91 100

GFSFLT1_850_rhum_090.txt.gz
RH
90 81 62 20 18 17 20 26 37 40 48 64 73 78 80 83 88 84 86 82 78 76 81 94 92 93 78 73 72 78 85 90 93
86 83 67 27 22 22 26 35 44 45 60 65 74 79 85 88 89 84 82 61 46 42 44 36 34 39 44 40 37 35 36 39 44
82 79 74 44 28 29 32 42 48 51 58 64 72 75 78 80 84 79 51 34 27 24 21 19 19 20 22 23 23 22 24 26 28
71 71 68 59 30 34 36 44 50 55 61 63 62 59 54 56 50 44 39 32 28 24 19 16 14 14 13 13 13 12 12 13 14
62 63 63 53 33 33 38 43 51 58 66 66 63 56 55 52 51 45 36 32 31 26 21 16 14 13 12 12 12 12 12 12 12
44 59 57 48 37 30 39 44 51 55 60 65 63 58 58 59 59 54 49 40 33 29 24 18 15 14 12 12 11 10 10 10 9
37 58 59 48 40 36 32 43 48 52 56 56 58 60 62 64 62 58 56 54 40 32 27 22 17 14 13 11 9 9 10 9 9
36 48 71 57 48 42 37 34 44 48 50 55 58 60 63 64 63 60 59 60 56 40 32 27 20 15 13 11 10 11 10 10 10
28 30 36 50 54 48 42 39 32 42 48 54 59 60 60 60 61 64 64 63 62 58 44 34 27 18 13 12 12 13 12 12 13
27 30 32 39 42 42 41 38 35 32 42 49 54 59 60 60 63 65 66 65 65 65 60 48 36 27 16 13 14 15 15 13 14
25 25 28 31 35 39 39 40 39 34 36 44 50 57 60 62 66 65 66 68 67 66 66 64 50 39 29 17 16 18 18 15 15
38 46 46 45 38 40 37 38 36 37 35 39 50 57 61 65 66 68 69 68 67 67 67 68 68 52 45 35 23 23 23 19 17
56 55 57 63 42 45 38 35 37 35 36 36 46 54 66 73 73 73 72 72 72 69 64 67 70 71 59 52 51 37 30 28 22
70 62 60 67 57 46 49 49 49 47 51 56 63 67 71 76 78 75 79 81 80 77 69 63 68 73 74 67 88 99 74 58 45
71 66 67 68 65 58 52 52 54 55 60 65 64 66 68 71 71 75 81 82 83 80 76 68 65 70 75 74 69 84 100 89 72
68 66 67 67 65 67 69 65 62 62 66 72 68 66 68 69 71 76 78 79 83 84 80 72 67 68 72 74 74 70 90 96 98
71 65 65 68 70 71 73 76 72 71 70 75 76 79 71 69 71 73 72 68 71 72 74 72 69 68 69 72 75 75 71 94 100
73 70 69 71 72 69 73 80 82 81 80 79 82 86 81 76 75 75 76 77 77 74 76 76 75 73 69 69 72 74 77 76 79
70 74 75 72 74 81 78 88 92 93 92 90 87 82 82 86 85 77 70 72 71 70 75 79 80 77 75 71 75 80 83 83 88
65 62 66 65 72 67 84 85 93 98 98 95 93 94 91 90 92 97 86 84 76 85 90 90 90 89 87 83 76 76 83 89 92

GFSFLT1_850_rhum_093.txt.gz
RH
74 40 16 15 15 18 23 28 36 44 65 70 72 80 73 73 74 80 83 82 80 76 71 55 53 53 64 63 70 70 68 79 87
80 54 19 17 19 24 30 39 52 56 68 72 76 82 85 86 85 77 48 33 31 26 25 22 22 23 24 25 27 29 31 32 32
79 65 27 25 25 29 38 47 55 62 69 75 75 77 80 80 77 56 37 29 25 21 18 16 15 14 14 13 13 13 14 15 17
79 70 42 28 29 32 40 50 54 59 59 61 59 56 57 54 46 38 34 32 28 22 18 15 14 13 12 12 12 12 12 12 12
72 66 50 26 31 34 41 46 49 56 59 60 57 58 58 54 50 46 40 35 32 26 21 17 15 14 13 12 11 11 10 10 10
70 58 48 36 29 37 40 41 45 51 58 60 56 57 57 57 56 53 51 45 35 31 25 20 16 14 13 11 10 10 10 10 10
63 65 61 48 33 32 37 40 42 49 56 56 58 58 58 61 59 57 55 55 50 37 32 26 19 15 13 11 10 11 10 10 11
50 73 83 60 47 34 31 34 40 45 50 53 57 58 60 62 63 62 60 59 58 56 46 36 28 19 14 12 12 13 13 13 13
32 46 59 55 48 41 38 33 32 42 47 50 53 57 60 63 63 65 64 63 62 62 60 54 40 30 18 13 14 16 16 15 15
34 36 42 51 47 40 39 37 38 33 38 46 52 53 56 61 63 66 66 65 65 64 66 64 60 42 33 20 16 18 20 17 15
32 34 38 38 40 41 40 39 39 37 34 38 45 50 55 59 61 64 67 67 67 67 66 66 67 64 46 39 26 19 22 23 18
30 30 30 33 36 36 36 38 38 40 38 35 40 48 56 59 62 64 65 66 68 69 68 66 68 71 70 56 44 37 27 27 25
40 42 51 55 50 37 39 35 34 36 35 38 38 44 50 61 69 71 72 71 72 75 75 69 67 71 74 74 70 59 46 43 36
73 55 59 67 63 44 46 45 41 44 43 47 50 54 58 63 64 68 71 75 78 81 81 77 70 68 72 77 80 96 90 75 65
80 73 72 71 66 59 49 48 51 54 55 56 57 59 59 62 62 65 68 74 80 84 86 82 76 69 68 72 78 90 93 93 88
80 76 76 74 65 62 64 62 59 60 61 65 62 62 63 63 63 66 69 72 78 80 80 81 78 72 68 68 71 76 86 94 85
76 73 70 68 70 70 71 73 73 73 71 72 72 74 67 65 66 69 70 68 74 76 73 72 76 75 73 70 71 76 79 98 100
73 72 71 70 73 74 75 78 80 82 83 83 83 84 78 75 73 72 72 71 72 72 73 70 71 73 74 73 71 78 82 83 97
76 77 71 71 72 72 77 83 75 88 89 91 92 87 86 87 86 79 74 72 74 80 83 84 85 86 82 84 85 83 83 90 87
59 64 67 68 67 60 62 63 71 77 94 90 94 91 94 95 97 98 88 82 72 89 93 94 92 92 85 85 84 91 91 90 95

GFSFLT1_850_rhum_096.txt.gz
RH
17 15 15 16 18 21 26 29 63 83 66 68 67 74 75 97 91 92 88 96 68 58 45 39 40 51 54 59 66 62 49 51 57
25 17 17 19 24 32 38 58 54 63 70 80 79 81 78 94 91 87 89 33 25 22 19 17 18 17 18 21 23 24 24 23 22
44 20 20 24 30 39 46 53 57 64 70 74 76 76 71 91 83 81 43 27 22 18 16 14 14 13 13 12 12 12 12 12 13
63 26 26 28 34 40 46 54 58 62 65 60 56 53 49 70 63 84 77 31 24 20 17 15 14 13 13 12 12 11 11 10 10
73 45 29 31 36 41 45 50 52 54 56 52 50 52 55 74 66 76 37 33 29 24 20 17 16 14 12 11 10 10 10 10 10
80 64 34 35 37 42 45 48 52 54 55 51 51 57 79 85 83 82 51 43 34 30 27 21 18 15 12 10 11 11 11 11 12
99 67 54 35 38 40 43 47 52 58 59 52 54 80 76 81 76 67 56 55 51 41 34 30 23 17 13 12 13 13 13 14 14
81 87 65 52 34 40 44 47 50 56 64 53 58 65 68 80 72 63 60 59 59 57 52 40 34 25 16 13 14 16 17 16 17
94 76 94 86 50 65 45 56 45 46 46 50 56 56 60 69 68 68 61 60 59 59 60 59 50 37 28 16 15 18 21 19 17
61 91 74 87 81 85 65 56 41 36 41 42 45 49 55 58 62 74 63 62 62 61 59 61 64 60 44 36 22 18 22 22 20
38 43 59 74 79 87 69 70 60 40 34 34 38 44 48 53 58 63 70 64 64 65 64 61 63 66 68 58 43 34 24 24 25
34 39 37 46 60 64 52 48 46 45 38 34 34 40 52 53 56 63 66 69 65 69 71 70 65 66 70 70 68 59 45 39 34
32 32 34 42 42 43 44 43 42 43 39 39 38 36 43 52 62 69 71 70 72 72 76 77 72 69 71 79 80 71 74 76 68
54 34 42 52 58 55 44 45 39 43 39 37 40 42 46 54 62 64 68 72 76 80 80 81 79 74 70 72 92 100 96 85 79
75 70 54 64 68 65 49 47 48 49 50 48 52 54 55 57 58 61 64 69 73 78 84 86 83 80 74 69 74 88 95 86 85
80 84 78 76 70 66 67 58 54 54 56 60 60 58 59 59 59 62 65 69 73 73 72 75 77 76 73 70 70 75 86 94 82
82 84 84 83 78 75 71 70 68 67 63 70 75 80 79 72 66 67 68 69 69 70 72 71 72 75 74 74 73 73 79 88 100
82 81 80 77 76 73 72 73 74 76 76 78 81 88 77 80 76 73 73 72 71 70 72 72 74 75 76 76 75 76 78 84 90
78 77 80 77 73 71 70 71 72 76 82 82 84 87 86 86 85 81 76 76 77 78 80 82 88 88 87 85 85 87 91 88 92
72 68 64 61 75 73 69 66 78 76 83 84 87 92 94 92 93 98 90 81 81 82 84 86 91 96 93 92 88 87 88 89 91

GFSFLT1_850_rhum_099.txt.gz
RH
15 16 22 21 18 21 29 46 64 51 46 66 73 76 86 83 85 90 72 37 35 29 21 28 32 37 34 38 39 33 31 27 26
16 16 16 19 25 36 69 78 68 73 72 70 71 69 86 82 82 80 26 22 19 17 15 15 14 13 13 14 14 14 14 14 12
18 18 22 31 38 55 55 59 64 72 72 72 66 63 80 80 84 36 25 22 18 16 15 14 13 12 12 11 12 12 11 11 11
21 22 28 38 42 49 53 57 60 60 60 57 46 47 68 77 82 82 29 25 22 19 18 16 14 13 12 10 10 11 11 13 11
27 26 30 39 44 48 52 53 54 48 44 44 47 64 81 85 85 43 32 29 26 25 21 19 16 13 11 11 12 11 11 12 13
54 34 32 38 44 46 50 51 51 50 48 48 53 78 85 85 88 50 46 38 32 29 28 24 20 15 13 13 14 14 14 15 16
97 44 34 36 40 44 49 51 53 53 52 50 61 87 86 87 89 54 52 52 50 44 35 31 27 20 15 15 16 17 17 17 18
96 57 39 34 38 41 46 50 53 90 88 79 86 84 86 88 88 56 55 55 55 55 54 45 34 30 21 16 17 20 20 19 19
98 83 88 57 41 88 82 70 87 77 86 83 81 81 85 88 88 65 56 54 53 54 56 57 55 40 34 24 17 19 23 22 21
96 94 93 93 92 90 85 82 81 72 78 79 80 78 80 78 83 89 60 58 57 56 55 55 58 60 56 44 34 23 21 23 24
85 90 84 93 93 91 92 89 84 74 72 73 76 72 65 63 68 82 64 60 59 59 59 58 56 57 62 65 62 48 38 30 28
92 87 94 95 94 92 93 92 88 83 75 67 67 70 74 76 65 63 82 70 63 63 65 67 64 61 60 60 63 68 69 62 56
85 89 91 92 94 95 95 93 86 86 84 78 70 63 63 62 77 78 68 73 85 68 70 72 73 71 68 68 78 65 70 76 77
82 84 84 89 88 86 90 88 87 86 82 77 67 52 42 48 56 72 74 73 71 79 80 76 78 78 76 72 97 97 88 80 81
81 88 83 85 90 86 68 61 63 71 82 74 47 49 52 55 60 60 68 74 68 70 79 76 78 82 80 76 73 82 88 81 79
84 93 89 86 87 82 78 69 73 51 54 69 60 57 55 57 56 60 64 80 69 72 70 73 78 84 77 73 72 71 78 86 81
100 98 99 96 76 72 78 76 65 58 57 58 76 76 76 74 67 74 70 69 70 69 70 74 76 84 91 76 75 75 75 78 90
86 93 98 99 92 84 78 75 69 71 70 66 72 85 76 76 75 69 71 72 71 72 74 75 76 77 80 78 80 84 80 78 82
86 89 93 88 82 81 82 81 78 77 85 88 77 77 80 83 80 82 79 79 79 79 79 80 82 81 89 89 90 85 84 89 89
82 87 88 81 84 78 78 75 75 82 77 83 76 73 80 87 92 92 91 87 84 85 87 89 89 88 89 91 93 90 89 87 87

GFSFLT1_850_rhum_102.txt.gz
RH
34 57 30 25 20 23 31 30 31 38 71 72 82 84 86 87 76 61 26 20 18 16 18 19 21 21 21 19 17 14 14 12 12
19 23 21 20 37 77 82 53 50 65 66 64 80 83 79 64 38 22 20 18 16 14 14 13 12 12 12 11 11 11 11 11 11
17 19 21 32 81 77 64 70 65 65 66 62 65 70 62 45 27 23 21 19 18 17 16 15 14 12 11 10 10 10 10 10 11
20 27 32 46 54 55 66 66 62 66 61 51 54 63 66 66 32 26 24 23 22 21 20 17 14 12 11 12 12 12 12 14 15
24 31 37 43 46 51 54 53 53 50 43 43 61 74 77 57 40 31 28 27 27 26 24 21 16 14 13 15 15 15 16 18 18
26 31 37 43 46 46 48 47 45 43 45 51 72 83 84 67 49 46 42 36 32 30 30 26 21 16 15 17 18 19 20 20 20
30 32 36 42 46 46 46 46 48 50 50 58 74 79 85 73 58 52 50 49 48 45 36 32 29 21 17 18 20 22 22 21 21
42 33 34 38 42 44 48 50 59 70 70 66 80 86 84 82 58 54 51 49 50 52 52 50 37 32 24 20 19 23 25 24 23
82 49 32 35 37 40 45 51 61 87 87 80 80 79 79 89 74 69 54 50 49 49 50 52 56 50 38 32 24 21 22 25 25
67 52 47 42 40 47 40 58 75 56 69 83 82 78 74 83 79 70 62 53 51 51 51 51 53 57 59 56 45 36 29 25 26
94 84 93 89 75 88 68 70 72 52 68 72 66 66 64 75 80 72 60 58 56 55 54 56 56 54 55 57 62 64 54 45 41
88 93 92 89 94 90 88 83 76 68 57 59 67 63 71 71 68 65 57 62 62 58 57 58 60 61 60 55 56 62 66 68 70
86 87 92 82 96 93 91 83 70 65 64 55 52 59 61 73 74 70 67 60 60 59 63 65 67 69 71 69 67 61 63 72 73
85 82 88 83 92 86 88 77 69 67 71 74 66 67 49 43 48 63 71 70 64 63 65 69 74 77 78 78 80 84 81 77 76
77 80 87 88 88 80 75 70 72 71 76 63 51 43 42 47 49 54 62 67 66 69 70 72 73 75 77 79 78 84 88 80 80
67 71 81 77 78 72 72 70 68 59 63 69 56 50 51 51 52 56 61 69 69 69 72 70 74 75 76 78 76 77 88 93 87
88 74 78 86 79 77 83 81 73 67 64 58 61 72 65 66 65 68 67 73 75 71 70 78 82 90 83 76 79 78 77 82 94
96 81 88 95 91 82 78 81 75 70 71 66 69 82 76 78 77 73 69 72 74 79 77 77 79 82 85 78 76 77 83 87 81
99 98 95 91 92 85 85 88 76 77 75 78 78 78 78 81 80 80 78 77 77 78 79 80 81 84 84 84 90 90 92 86 82
90 93 98 98 99 91 84 85 83 78 78 79 74 69 68 81 93 88 86 86 86 88 89 89 89 90 88 89 91 96 97 90 90

GFSFLT1_850_rhum_105.txt.gz
RH
99 51 39 22 15 18 28 30 65 86 84 82 82 82 79 78 53 21 18 16 15 14 14 14 13 13 12 12 11 11 11 11 11
38 28 22 28 31 29 32 47 74 73 80 86 83 78 57 29 21 19 18 16 16 15 15 14 13 12 11 11 11 11 11 11 12
23 22 53 82 89 54 46 63 64 63 74 78 69 53 33 24 22 21 20 20 20 19 17 15 13 12 12 12 12 12 14 16 18
18 41 90 81 64 76 69 61 62 60 59 61 61 50 42 29 26 24 24 25 24 22 20 17 14 14 15 15 16 17 18 19 21
26 38 59 52 54 80 63 60 59 50 43 53 63 58 52 40 34 29 27 28 28 27 25 21 17 17 18 18 19 20 21 21 22
29 34 38 42 48 52 50 50 44 41 51 63 77 66 58 51 46 44 41 37 33 30 30 26 21 18 19 21 22 22 22 22 23
30 33 38 39 46 48 44 41 43 46 55 71 79 73 63 55 50 49 49 48 49 46 39 33 29 24 21 21 24 25 25 24 23
30 33 36 40 42 42 43 43 45 50 58 71 83 84 80 63 55 50 50 49 49 50 51 50 43 35 30 24 22 24 26 26 26
33 31 35 40 43 46 48 51 52 56 65 74 81 87 75 65 58 56 53 51 50 49 48 48 50 53 48 40 32 26 24 25 26
31 32 34 37 39 42 45 46 50 54 65 79 80 69 70 62 56 52 55 54 52 52 51 51 50 50 51 54 56 49 40 34 32
62 39 40 39 42 44 49 46 47 53 59 77 76 65 60 59 52 50 51 55 59 57 56 55 55 54 53 52 53 58 61 60 58
90 78 71 77 77 74 80 66 67 55 54 62 59 53 49 56 53 49 50 54 58 59 58 59 59 61 64 63 60 57 59 63 66
90 90 91 93 90 90 90 82 73 65 59 57 56 54 52 54 58 53 54 58 59 62 64 65 68 71 74 72 67 65 67 72 73
84 89 95 95 92 93 94 89 79 75 67 64 62 57 54 51 56 55 52 58 59 64 68 70 74 76 76 78 83 83 80 81 80
75 77 84 87 91 97 95 88 78 65 66 74 70 62 53 47 44 48 55 61 64 69 73 73 75 76 77 76 80 86 92 90 89
69 58 61 69 70 74 75 72 72 69 72 70 58 55 47 48 51 55 57 64 72 72 78 76 76 77 78 78 79 78 83 92 100
78 70 65 67 71 69 68 69 76 72 65 62 62 59 56 54 53 62 66 70 75 79 82 78 76 76 77 77 81 80 79 79 82
91 90 81 82 82 77 72 71 76 76 70 64 61 71 67 67 64 65 71 76 77 84 86 85 79 81 82 77 77 78 78 80 84
99 99 90 99 98 88 82 82 84 85 85 80 75 72 71 74 76 76 77 80 87 87 84 84 84 85 86 87 83 82 87 90 90
99 100 99 92 96 99 86 78 86 85 90 90 79 77 80 79 82 75 84 84 84 83 84 85 85 88 91 92 89 92 94 90 91

GFSFLT1_850_rhum_108.txt.gz
RH
100 90 79 22 17 42 54 53 78 82 76 65 73 76 77 57 20 18 16 15 14 14 14 13 13 12 11 11 11 11 11 13 15
32 72 23 16 29 36 56 83 85 83 74 64 60 50 31 21 19 18 18 18 18 17 16 14 12 12 12 12 13 14 17 19 20
29 21 19 24 31 43 69 77 70 65 63 55 43 31 24 22 21 22 22 22 21 19 16 14 14 15 15 16 18 20 20 22 22
24 66 69 46 36 57 60 57 62 65 53 42 49 37 28 26 25 26 26 26 24 22 18 16 17 18 18 19 21 22 22 23 24
73 78 84 65 56 59 54 54 56 51 45 40 46 46 40 34 30 28 28 29 28 26 23 19 19 20 20 22 23 23 23 24 25
78 79 59 77 66 56 54 54 44 44 50 47 52 51 49 47 45 43 41 38 34 31 29 25 21 20 22 24 25 25 25 25 26
47 47 50 54 53 52 50 45 43 53 55 54 54 54 55 51 48 46 46 46 47 46 41 34 29 24 22 23 25 26 26 26 27
35 42 51 47 44 42 41 41 46 55 62 60 58 55 60 58 50 47 47 46 45 46 48 48 46 40 34 29 25 25 26 27 27
36 37 42 44 42 38 42 46 48 53 60 68 61 59 55 56 52 51 47 47 47 48 47 48 49 51 51 48 41 34 29 28 28
32 36 37 39 40 44 47 50 54 56 59 66 65 61 59 56 52 49 48 50 50 51 51 52 52 51 51 53 55 55 48 41 38
30 32 37 38 40 43 46 48 53 60 63 66 71 71 66 59 54 50 50 51 54 55 55 56 57 58 59 59 56 57 61 63 64
56 33 31 33 37 43 50 58 64 61 69 74 72 71 62 54 52 53 52 53 56 58 59 63 65 66 69 70 69 64 63 66 68
74 50 47 49 58 69 73 67 60 62 58 56 57 55 52 52 51 51 53 60 63 66 68 69 72 75 75 69 70 73 74 78 79
77 72 76 83 84 83 83 85 84 76 69 64 62 55 49 50 49 49 51 56 65 71 75 75 74 76 77 79 89 93 84 84 85
74 79 85 86 94 93 91 91 89 86 83 73 66 63 56 53 48 45 47 52 61 67 72 76 79 80 78 80 80 88 97 99 99
77 85 84 89 88 80 83 89 89 81 71 72 74 70 57 51 44 48 51 54 60 63 72 76 81 79 80 80 80 78 78 90 95
66 73 77 75 76 77 82 84 79 75 73 77 75 69 54 50 50 55 59 61 68 70 72 75 81 79 80 79 77 75 80 73 79
82 73 66 69 75 73 66 65 68 71 76 74 70 66 58 64 61 62 68 76 74 76 78 76 77 81 81 80 81 78 79 76 79
87 88 60 72 84 84 83 80 74 81 79 81 75 67 76 77 74 73 73 77 77 75 80 80 79 82 90 86 81 79 81 76 82
88 86 61 91 96 100 97 84 93 95 90 72 77 80 79 82 86 80 70 80 82 83 86 86 86 89 94 80 85 86 92 93 90

GFSFLT1_850_rhum_111.txt.gz
RH
89 87 69 23 30 63 60 68 64 69 81 80 78 64 42 20 18 16 16 16 15 15 14 13 12 13 13 13 15 18 20 23 22
93 88 38 13 39 56 68 75 73 65 66 60 42 25 21 19 18 19 20 21 19 17 15 14 15 15 16 18 20 22 23 24 24
78 64 14 24 44 54 75 78 66 54 49 38 25 22 21 21 23 24 24 23 20 18 16 18 18 19 20 22 22 23 24 25 25
65 16 19 29 40 76 70 58 51 47 39 31 26 25 25 25 27 27 27 26 24 20 19 20 20 21 22 24 24 25 25 26 28
20 21 28 33 68 60 50 42 42 42 42 36 34 32 31 30 30 29 29 29 28 26 23 21 21 22 24 25 25 26 26 28 29
81 72 35 41 54 47 46 43 41 41 45 46 43 41 42 43 43 42 41 38 36 33 30 26 23 23 24 26 27 27 27 28 29
94 80 52 50 59 51 48 46 40 46 52 52 50 47 46 45 44 43 43 44 44 44 42 37 31 27 25 25 26 27 28 28 29
61 63 70 61 59 56 51 39 48 58 60 58 56 53 51 50 47 45 44 44 44 44 46 46 46 44 39 33 29 28 27 28 28
38 46 52 49 49 49 42 42 52 64 65 64 66 66 60 56 50 49 47 47 47 47 47 47 49 50 51 51 48 42 35 32 32
36 40 45 45 45 42 40 44 49 62 70 68 65 64 57 51 49 47 47 49 50 51 52 54 55 55 55 56 58 58 53 49 48
37 39 44 46 45 45 45 46 51 59 66 68 66 65 63 55 50 47 47 50 55 56 56 58 59 62 65 66 64 61 62 63 65
36 40 43 44 46 47 50 55 59 66 68 69 66 66 68 62 54 52 54 55 58 60 62 63 65 68 72 73 72 69 68 68 69
35 35 40 43 45 46 48 48 53 58 56 60 70 68 64 60 52 56 58 55 59 60 63 67 70 73 74 73 74 79 83 84 81
71 46 36 36 39 46 54 57 60 63 63 60 60 60 59 58 57 57 60 62 65 67 69 70 72 74 78 78 85 89 94 92 93
73 67 62 64 67 69 72 73 76 73 76 74 70 64 60 57 53 54 55 58 63 68 74 76 73 77 75 76 79 86 89 96 99
66 72 77 74 71 69 81 82 81 84 86 85 74 66 64 60 56 58 54 53 56 67 71 79 82 80 75 77 77 75 69 84 90
74 72 74 76 73 80 88 87 88 91 92 89 79 76 56 45 44 49 49 53 61 65 71 75 82 84 80 82 82 78 68 71 72
77 70 70 79 86 80 79 75 81 85 82 72 76 73 59 58 53 49 54 62 69 74 72 74 80 82 87 88 86 79 75 71 70
75 81 82 72 71 65 83 76 76 82 82 83 65 77 72 81 73 70 69 70 73 78 78 77 80 84 86 90 87 80 79 81 83
81 75 66 69 71 71 70 68 79 88 92 96 73 76 77 72 66 74 77 77 77 79 78 82 84 87 86 87 88 78 92 91 86

GFSFLT1_850_rhum_114.txt.gz
RH
83 79 59 49 52 69 50 64 74 83 79 74 58 28 19 17 17 16 17 18 17 16 14 15 16 16 18 22 23 25 28 29 34
84 82 46 28 58 49 59 66 73 72 59 40 23 20 19 19 21 22 22 20 18 17 18 18 19 21 22 24 24 26 26 27 30
87 78 23 32 60 48 66 61 57 47 30 23 21 21 22 24 25 25 24 22 19 19 21 21 22 23 25 25 26 26 27 30 31
87 48 17 48 38 60 58 47 40 32 24 24 24 24 26 27 28 28 27 25 23 22 22 23 23 25 26 26 27 28 29 30 32
81 19 32 48 47 53 48 43 36 32 28 28 28 28 29 30 31 31 31 30 28 27 25 24 25 26 27 28 28 29 30 31 32
25 25 36 74 58 47 47 43 40 40 39 40 40 40 41 42 42 41 40 39 37 34 32 28 26 26 27 28 28 28 29 30 31
18 29 37 74 56 48 50 45 43 45 46 47 46 45 44 43 42 41 41 42 42 42 41 38 35 32 29 28 28 28 28 29 29
29 33 42 56 50 46 47 44 46 52 53 52 50 48 45 43 42 42 42 42 43 43 44 44 44 45 43 40 37 34 32 31 30
52 37 44 49 50 48 47 45 49 55 56 59 60 57 57 51 48 47 46 46 46 46 47 48 48 50 51 52 51 50 44 41 39
54 55 50 52 52 56 52 48 55 56 55 57 61 62 61 60 57 55 53 52 50 50 52 54 56 58 60 60 59 58 57 57 57
44 55 57 54 55 58 47 47 52 57 57 60 61 63 63 62 59 56 54 54 58 58 57 59 61 64 66 66 66 64 63 63 63
40 45 52 55 56 52 45 49 54 59 65 65 64 64 64 62 59 57 56 56 59 62 64 65 67 69 70 68 69 70 72 71 74
42 45 49 52 50 47 48 50 58 63 66 67 66 65 63 62 56 53 56 60 62 63 66 68 70 74 77 72 70 70 76 83 84
41 42 45 46 46 47 51 55 54 56 58 57 59 58 61 63 60 55 53 58 62 66 70 72 75 75 79 81 81 84 87 86 90
38 37 38 41 43 43 44 46 52 58 66 70 71 69 64 61 57 54 52 54 58 63 70 74 75 80 80 83 84 83 89 83 93
56 50 36 36 36 38 46 61 69 72 76 82 79 71 66 60 56 57 53 52 53 56 60 70 76 81 83 81 80 88 86 80 79
71 69 60 60 64 69 74 82 83 80 84 89 92 84 52 44 48 52 58 56 57 55 58 69 74 83 84 80 82 82 78 73 80
73 73 76 83 83 79 80 81 80 77 87 88 96 81 62 51 44 46 50 56 54 60 68 72 75 79 79 85 88 88 85 75 78
88 87 87 84 85 80 73 87 85 67 67 78 74 77 76 77 65 63 63 63 61 68 75 83 81 84 84 84 85 88 91 83 79
81 88 91 90 76 83 75 70 72 70 87 89 80 82 89 90 88 74 68 74 74 76 78 83 84 90 85 82 84 84 93 85 89

GFSFLT1_850_rhum_117.txt.gz
RH
88 84 76 65 54 49 71 75 76 74 73 49 24 19 18 18 18 19 20 20 17 18 18 18 21 24 25 27 26 29 37 40 61
81 73 68 48 52 49 64 71 74 71 50 22 19 19 20 22 23 23 23 21 21 20 21 22 24 25 26 28 28 33 41 55 53
81 72 48 41 48 60 67 72 58 44 24 21 21 23 25 25 25 24 22 21 22 23 23 24 26 27 28 28 29 34 34 36 44
84 66 28 45 46 59 59 53 40 28 22 23 24 26 27 28 28 28 26 24 24 24 25 26 27 28 29 30 30 32 34 37 36
86 43 45 49 59 60 47 41 31 25 24 25 27 28 29 31 31 32 31 30 28 27 26 27 28 28 29 30 30 31 32 33 34
85 23 64 50 61 50 44 38 31 31 29 31 33 36 38 40 39 39 38 37 35 33 31 29 28 29 29 30 30 30 31 31 32
71 27 68 56 53 47 45 42 38 40 40 41 43 44 43 43 42 42 42 42 41 40 39 37 36 36 36 36 35 34 32 32 32
26 49 84 64 52 50 46 44 44 48 47 46 46 45 44 44 44 44 44 44 44 44 44 43 43 44 44 44 44 43 41 39 39
34 48 74 58 52 50 46 46 48 53 52 51 52 51 49 50 47 46 46 46 47 47 48 48 49 50 52 53 53 52 51 50 51
30 38 56 55 53 51 43 46 51 54 56 60 58 55 54 52 49 49 49 50 50 51 52 54 56 58 60 60 60 60 59 59 60
31 39 58 55 55 54 48 43 50 55 58 60 60 59 57 56 56 53 53 54 55 54 55 57 60 63 65 64 63 64 66 65 66
41 40 53 53 53 53 48 44 52 58 58 62 62 61 60 60 58 56 56 58 58 60 62 63 65 67 68 67 65 64 67 70 72
58 59 52 53 55 58 51 45 50 54 55 62 61 61 60 60 58 55 54 56 59 63 65 67 68 72 73 71 69 69 71 77 80
57 59 58 56 56 55 45 45 48 53 59 59 60 58 58 58 58 56 54 56 61 63 68 69 72 74 75 74 79 87 86 82 76
51 54 57 53 53 48 45 48 54 56 58 62 63 66 63 60 56 54 54 53 55 60 63 68 71 76 77 76 80 90 93 89 84
47 49 49 47 45 43 46 49 50 54 68 77 74 71 71 62 52 49 48 48 50 56 57 62 68 75 77 80 79 79 88 88 87
41 41 42 44 44 44 44 48 61 76 80 81 81 76 56 46 44 45 46 52 50 56 58 57 64 74 79 81 82 80 77 79 80
65 55 53 38 38 42 50 67 77 81 81 74 81 89 64 57 61 57 50 56 50 51 54 59 65 72 80 86 88 90 87 84 79
88 88 76 70 76 82 81 79 78 72 69 89 82 79 88 93 83 74 68 72 58 51 55 65 77 80 83 88 83 89 86 83 85
92 92 93 91 91 90 88 82 77 78 83 89 89 94 96 98 100 98 88 77 75 72 70 78 89 92 87 82 84 79 84 82 92